Wetterdaten: Mittwoch, 09.05.2012
Datum Zeit Temp. A. Feuchte A. Regen Wind Richtung Richtung Taupunkt Windchill Windben
09.05.2012 00:00 11,2 C 78 % 0,0 l/m 0,0 km/h (0 Bft) S 180 7,5 C 8,9 C 0,0 km/h (0 Bft)
09.05.2012 00:02 11,2 C 78 % 0,0 l/m 0,0 km/h (0 Bft) W 270 7,5 C 8,9 C 0,0 km/h (0 Bft)
09.05.2012 00:04 11,1 C 78 % 0,0 l/m 0,0 km/h (0 Bft) N-NW 337 7,4 C 8,8 C 0,0 km/h (0 Bft)
09.05.2012 00:06 11,1 C 78 % 0,0 l/m 0,0 km/h (0 Bft) N-NW 337 7,4 C 8,8 C 0,0 km/h (0 Bft)
09.05.2012 00:08 11,1 C 78 % 0,0 l/m 0,0 km/h (0 Bft) N-NW 337 7,4 C 8,7 C 0,0 km/h (0 Bft)
09.05.2012 00:10 11,1 C 78 % 0,0 l/m 0,0 km/h (0 Bft) N-NW 337 7,4 C 8,7 C 0,0 km/h (0 Bft)
09.05.2012 00:12 11,1 C 78 % 0,0 l/m 0,0 km/h (0 Bft) N-NW 337 7,4 C 8,7 C 0,0 km/h (0 Bft)
09.05.2012 00:14 11,0 C 78 % 0,0 l/m 0,0 km/h (0 Bft) N-NW 337 7,3 C 8,7 C 0,0 km/h (0 Bft)
09.05.2012 00:16 11,1 C 78 % 0,0 l/m 0,0 km/h (0 Bft) N-NO 22 7,4 C 8,6 C 0,0 km/h (0 Bft)
09.05.2012 00:18 11,1 C 79 % 0,0 l/m 0,0 km/h (0 Bft) N-NO 22 7,6 C 8,6 C 0,0 km/h (0 Bft)
09.05.2012 00:20 11,0 C 79 % 0,0 l/m 0,0 km/h (0 Bft) W-SW 247 7,5 C 8,6 C 0,0 km/h (0 Bft)
09.05.2012 00:22 10,9 C 79 % 0,0 l/m 0,0 km/h (0 Bft) W-SW 247 7,4 C 8,6 C 0,0 km/h (0 Bft)
09.05.2012 00:24 11,0 C 78 % 0,0 l/m 0,0 km/h (0 Bft) N-NW 337 7,3 C 8,6 C 0,0 km/h (0 Bft)
09.05.2012 00:26 10,9 C 79 % 0,0 l/m 0,0 km/h (0 Bft) N-NW 337 7,4 C 8,6 C 0,0 km/h (0 Bft)
09.05.2012 00:28 10,9 C 79 % 0,0 l/m 0,0 km/h (0 Bft) N-NW 337 7,4 C 8,6 C 0,0 km/h (0 Bft)
09.05.2012 00:30 10,8 C 79 % 0,0 l/m 0,0 km/h (0 Bft) N-NW 337 7,3 C 8,6 C 0,0 km/h (0 Bft)
09.05.2012 00:32 10,8 C 79 % 0,0 l/m 0,0 km/h (0 Bft) N-NW 337 7,3 C 8,5 C 0,0 km/h (0 Bft)
09.05.2012 00:34 10,8 C 79 % 0,0 l/m 0,0 km/h (0 Bft) N-NW 337 7,3 C 8,5 C 0,0 km/h (0 Bft)
09.05.2012 00:36 10,8 C 79 % 0,0 l/m 0,0 km/h (0 Bft) N-NW 337 7,3 C 8,5 C 0,0 km/h (0 Bft)
09.05.2012 00:38 10,7 C 79 % 0,0 l/m 0,0 km/h (0 Bft) N-NO 22 7,2 C 8,5 C 0,0 km/h (0 Bft)
09.05.2012 00:40 10,7 C 79 % 0,0 l/m 0,0 km/h (0 Bft) N 360 7,2 C 8,6 C 0,0 km/h (0 Bft)
09.05.2012 00:42 10,7 C 79 % 0,0 l/m 0,2 km/h (0 Bft) NO 45 7,2 C 8,7 C 0,0 km/h (0 Bft)
09.05.2012 00:44 10,7 C 79 % 0,0 l/m 0,2 km/h (0 Bft) NO 45 7,2 C 8,7 C 0,0 km/h (0 Bft)
09.05.2012 00:46 10,7 C 79 % 0,0 l/m 0,2 km/h (0 Bft) N-NO 22 7,2 C 8,7 C 0,0 km/h (0 Bft)
09.05.2012 00:48 10,7 C 79 % 0,0 l/m 0,0 km/h (0 Bft) N-NO 22 7,2 C 8,8 C 0,0 km/h (0 Bft)
09.05.2012 00:50 10,7 C 79 % 0,0 l/m 0,0 km/h (0 Bft) N-NO 22 7,2 C 8,8 C 0,0 km/h (0 Bft)
09.05.2012 00:52 10,7 C 79 % 0,0 l/m 0,2 km/h (0 Bft) N 360 7,2 C 8,9 C 2,4 km/h (1 Bft)
09.05.2012 00:54 10,7 C 79 % 0,0 l/m 0,3 km/h (0 Bft) N 360 7,2 C 9,0 C 2,4 km/h (1 Bft)
09.05.2012 00:56 10,7 C 79 % 0,0 l/m 0,3 km/h (0 Bft) N 360 7,2 C 9,0 C 2,4 km/h (1 Bft)
09.05.2012 00:58 10,8 C 79 % 0,0 l/m 0,3 km/h (0 Bft) S 180 7,3 C 9,1 C 0,0 km/h (0 Bft)
09.05.2012 01:00 10,8 C 79 % 0,0 l/m 0,3 km/h (0 Bft) N 360 7,3 C 9,1 C 0,0 km/h (0 Bft)
09.05.2012 01:02 10,8 C 79 % 0,0 l/m 0,3 km/h (0 Bft) N 360 7,3 C 9,1 C 0,0 km/h (0 Bft)
09.05.2012 01:04 10,8 C 79 % 0,0 l/m 0,2 km/h (0 Bft) N 360 7,3 C 9,1 C 0,0 km/h (0 Bft)
09.05.2012 01:06 10,8 C 79 % 0,0 l/m 0,2 km/h (0 Bft) N-NW 337 7,3 C 9,1 C 0,0 km/h (0 Bft)
09.05.2012 01:08 10,8 C 79 % 0,0 l/m 0,2 km/h (0 Bft) N-NO 22 7,3 C 9,2 C 0,0 km/h (0 Bft)
09.05.2012 01:10 10,7 C 79 % 0,0 l/m 0,5 km/h (0 Bft) N-NO 22 7,2 C 9,2 C 1,6 km/h (1 Bft)
09.05.2012 01:12 10,7 C 79 % 0,0 l/m 0,8 km/h (0 Bft) NO 45 7,2 C 9,3 C 4,3 km/h (1 Bft)
09.05.2012 01:14 10,7 C 80 % 0,0 l/m 1,1 km/h (1 Bft) N-NO 22 7,4 C 9,3 C 4,3 km/h (1 Bft)
09.05.2012 01:16 10,7 C 79 % 0,0 l/m 1,1 km/h (1 Bft) N-NO 22 7,2 C 9,3 C 4,3 km/h (1 Bft)
09.05.2012 01:18 10,7 C 80 % 0,0 l/m 1,1 km/h (1 Bft) N-NO 22 7,4 C 9,3 C 2,7 km/h (1 Bft)
09.05.2012 01:20 10,7 C 79 % 0,0 l/m 1,1 km/h (1 Bft) N-NO 22 7,2 C 9,3 C 1,9 km/h (1 Bft)
09.05.2012 01:22 10,6 C 80 % 0,0 l/m 1,0 km/h (0 Bft) N-NO 22 7,3 C 9,3 C 1,6 km/h (1 Bft)
09.05.2012 01:24 10,5 C 80 % 0,0 l/m 0,8 km/h (0 Bft) N-NO 22 7,2 C 9,3 C 1,6 km/h (1 Bft)
09.05.2012 01:26 10,5 C 80 % 0,0 l/m 1,0 km/h (0 Bft) N-NO 22 7,2 C 9,3 C 1,8 km/h (1 Bft)
09.05.2012 01:28 10,4 C 80 % 0,0 l/m 1,0 km/h (0 Bft) O 90 7,1 C 9,3 C 2,3 km/h (1 Bft)
09.05.2012 01:30 10,5 C 80 % 0,0 l/m 1,0 km/h (0 Bft) N 360 7,2 C 9,2 C 2,3 km/h (1 Bft)
09.05.2012 01:32 10,4 C 80 % 0,0 l/m 1,1 km/h (1 Bft) N-NO 22 7,1 C 9,2 C 2,6 km/h (1 Bft)
09.05.2012 01:34 10,3 C 80 % 0,0 l/m 1,1 km/h (1 Bft) NO 45 7,0 C 9,1 C 2,6 km/h (1 Bft)
09.05.2012 01:36 10,3 C 80 % 0,0 l/m 1,1 km/h (1 Bft) N-NO 22 7,0 C 9,0 C 1,8 km/h (1 Bft)
09.05.2012 01:38 10,2 C 79 % 0,0 l/m 1,1 km/h (1 Bft) S-SO 157 6,7 C 9,0 C 2,6 km/h (1 Bft)
09.05.2012 01:40 10,2 C 79 % 0,0 l/m 1,1 km/h (1 Bft) N 360 6,7 C 8,9 C 2,6 km/h (1 Bft)
09.05.2012 01:42 10,3 C 79 % 0,0 l/m 1,6 km/h (1 Bft) O-NO 67 6,8 C 8,9 C 2,3 km/h (1 Bft)
09.05.2012 01:44 10,3 C 79 % 0,0 l/m 1,6 km/h (1 Bft) O-NO 67 6,8 C 8,9 C 2,7 km/h (1 Bft)
09.05.2012 01:46 10,3 C 79 % 0,0 l/m 1,3 km/h (1 Bft) N-NO 22 6,8 C 8,9 C 5,5 km/h (1 Bft)
09.05.2012 01:48 10,2 C 79 % 0,0 l/m 1,3 km/h (1 Bft) NO 45 6,7 C 8,9 C 2,1 km/h (1 Bft)
09.05.2012 01:50 10,2 C 78 % 0,0 l/m 1,4 km/h (1 Bft) N-NO 22 6,5 C 9,0 C 4,5 km/h (1 Bft)
09.05.2012 01:52 10,3 C 78 % 0,0 l/m 1,4 km/h (1 Bft) NO 45 6,6 C 9,0 C 4,5 km/h (1 Bft)
09.05.2012 01:54 10,2 C 78 % 0,0 l/m 1,8 km/h (1 Bft) NO 45 6,5 C 9,0 C 5,6 km/h (1 Bft)
09.05.2012 01:56 10,2 C 78 % 0,0 l/m 1,9 km/h (1 Bft) NO 45 6,5 C 9,1 C 5,6 km/h (1 Bft)
09.05.2012 01:58 10,2 C 78 % 0,0 l/m 2,4 km/h (1 Bft) NO 45 6,5 C 9,2 C 4,5 km/h (1 Bft)
09.05.2012 02:00 10,3 C 78 % 0,0 l/m 2,3 km/h (1 Bft) N-NO 22 6,6 C 9,2 C 3,1 km/h (1 Bft)
09.05.2012 02:02 10,3 C 78 % 0,0 l/m 2,4 km/h (1 Bft) N-NO 22 6,6 C 9,2 C 2,9 km/h (1 Bft)
09.05.2012 02:04 10,1 C 78 % 0,0 l/m 2,4 km/h (1 Bft) NO 45 6,4 C 9,2 C 4,8 km/h (1 Bft)
09.05.2012 02:06 10,1 C 79 % 0,0 l/m 2,4 km/h (1 Bft) NO 45 6,6 C 9,1 C 4,8 km/h (1 Bft)
09.05.2012 02:08 10,1 C 79 % 0,0 l/m 2,7 km/h (1 Bft) N-NO 22 6,6 C 9,1 C 5,3 km/h (1 Bft)
09.05.2012 02:10 10,0 C 79 % 0,0 l/m 2,9 km/h (1 Bft) N-NO 22 6,5 C 9,1 C 5,3 km/h (1 Bft)
09.05.2012 02:12 10,0 C 79 % 0,0 l/m 2,4 km/h (1 Bft) N-NO 22 6,5 C 9,1 C 2,1 km/h (1 Bft)
09.05.2012 02:14 10,0 C 79 % 0,0 l/m 2,3 km/h (1 Bft) N-NO 22 6,5 C 9,0 C 0,0 km/h (0 Bft)
09.05.2012 02:16 10,0 C 79 % 0,0 l/m 1,8 km/h (1 Bft) N-NO 22 6,5 C 9,0 C 6,8 km/h (2 Bft)
09.05.2012 02:18 9,9 C 79 % 0,0 l/m 1,4 km/h (1 Bft) N-NO 22 6,4 C 9,0 C 2,6 km/h (1 Bft)
09.05.2012 02:20 9,9 C 79 % 0,0 l/m 1,0 km/h (0 Bft) N-NO 22 6,4 C 8,9 C 2,7 km/h (1 Bft)
09.05.2012 02:22 9,9 C 80 % 0,0 l/m 1,0 km/h (0 Bft) NO 45 6,6 C 8,8 C 2,7 km/h (1 Bft)
09.05.2012 02:24 9,9 C 80 % 0,0 l/m 1,0 km/h (0 Bft) NO 45 6,6 C 8,8 C 1,6 km/h (1 Bft)
09.05.2012 02:26 9,9 C 80 % 0,0 l/m 1,3 km/h (1 Bft) NO 45 6,6 C 8,7 C 1,6 km/h (1 Bft)
09.05.2012 02:28 9,9 C 80 % 0,0 l/m 0,8 km/h (0 Bft) N 360 6,6 C 8,7 C 1,6 km/h (1 Bft)
09.05.2012 02:30 9,9 C 80 % 0,0 l/m 0,8 km/h (0 Bft) N-NO 22 6,6 C 8,7 C 0,0 km/h (0 Bft)
09.05.2012 02:32 9,9 C 80 % 0,0 l/m 1,0 km/h (0 Bft) NO 45 6,6 C 8,7 C 2,3 km/h (1 Bft)
09.05.2012 02:34 9,9 C 80 % 0,0 l/m 1,0 km/h (0 Bft) N 360 6,6 C 8,8 C 3,4 km/h (1 Bft)
09.05.2012 02:36 9,9 C 81 % 0,0 l/m 1,1 km/h (1 Bft) N-NO 22 6,8 C 8,9 C 3,4 km/h (1 Bft)
09.05.2012 02:38 10,0 C 80 % 0,0 l/m 1,1 km/h (1 Bft) N-NO 22 6,7 C 9,0 C 2,7 km/h (1 Bft)
09.05.2012 02:40 10,0 C 80 % 0,0 l/m 1,1 km/h (1 Bft) NO 45 6,7 C 9,0 C 2,7 km/h (1 Bft)
09.05.2012 02:42 10,0 C 80 % 0,0 l/m 1,0 km/h (0 Bft) N 360 6,7 C 9,0 C 2,3 km/h (1 Bft)
09.05.2012 02:44 10,0 C 80 % 0,0 l/m 0,8 km/h (0 Bft) N-NO 22 6,7 C 9,1 C 1,6 km/h (1 Bft)
09.05.2012 02:46 10,1 C 81 % 0,0 l/m 0,5 km/h (0 Bft) N 360 7,0 C 9,2 C 2,7 km/h (1 Bft)
09.05.2012 02:48 10,2 C 81 % 0,0 l/m 0,8 km/h (0 Bft) N-NO 22 7,1 C 9,3 C 3,7 km/h (1 Bft)
09.05.2012 02:50 10,3 C 81 % 0,0 l/m 1,1 km/h (1 Bft) N-NO 22 7,2 C 9,3 C 3,7 km/h (1 Bft)
09.05.2012 02:52 10,3 C 80 % 0,0 l/m 1,1 km/h (1 Bft) N 360 7,0 C 9,4 C 2,3 km/h (1 Bft)
09.05.2012 02:54 10,2 C 80 % 0,0 l/m 1,1 km/h (1 Bft) N-NO 22 6,9 C 9,5 C 0,0 km/h (0 Bft)
09.05.2012 02:56 10,3 C 80 % 0,0 l/m 1,0 km/h (0 Bft) N-NO 22 7,0 C 9,6 C 0,0 km/h (0 Bft)
09.05.2012 02:58 10,4 C 80 % 0,0 l/m 1,0 km/h (0 Bft) NO 45 7,1 C 9,6 C 2,9 km/h (1 Bft)
09.05.2012 03:00 10,4 C 80 % 0,0 l/m 1,0 km/h (0 Bft) N-NO 22 7,1 C 9,7 C 2,9 km/h (1 Bft)
09.05.2012 03:02 10,5 C 80 % 0,0 l/m 1,0 km/h (0 Bft) NO 45 7,2 C 9,7 C 3,2 km/h (1 Bft)
09.05.2012 03:04 10,4 C 80 % 0,0 l/m 1,1 km/h (1 Bft) NO 45 7,1 C 9,7 C 3,2 km/h (1 Bft)
09.05.2012 03:06 10,5 C 80 % 0,0 l/m 1,4 km/h (1 Bft) N-NO 22 7,2 C 9,7 C 2,9 km/h (1 Bft)
09.05.2012 03:08 10,5 C 81 % 0,0 l/m 1,4 km/h (1 Bft) N-NO 22 7,4 C 9,6 C 2,9 km/h (1 Bft)
09.05.2012 03:10 10,4 C 80 % 0,0 l/m 1,1 km/h (1 Bft) NO 45 7,1 C 9,6 C 1,6 km/h (1 Bft)
09.05.2012 03:12 10,4 C 81 % 0,0 l/m 1,0 km/h (0 Bft) N-NO 22 7,3 C 9,6 C 1,9 km/h (1 Bft)
09.05.2012 03:14 10,3 C 81 % 0,0 l/m 0,6 km/h (0 Bft) N-NW 337 7,2 C 9,6 C 1,9 km/h (1 Bft)
09.05.2012 03:16 10,3 C 81 % 0,0 l/m 0,5 km/h (0 Bft) N-NW 337 7,2 C 9,5 C 1,6 km/h (1 Bft)
09.05.2012 03:18 10,4 C 81 % 0,0 l/m 0,3 km/h (0 Bft) N-NW 337 7,3 C 9,4 C 0,0 km/h (0 Bft)
09.05.2012 03:20 10,4 C 81 % 0,0 l/m 0,3 km/h (0 Bft) N-NW 337 7,3 C 9,4 C 0,0 km/h (0 Bft)
09.05.2012 03:22 10,4 C 81 % 0,0 l/m 0,3 km/h (0 Bft) O-SO 112 7,3 C 9,4 C 0,0 km/h (0 Bft)
09.05.2012 03:24 10,4 C 81 % 0,0 l/m 0,3 km/h (0 Bft) S 180 7,3 C 9,4 C 0,0 km/h (0 Bft)
09.05.2012 03:26 10,4 C 81 % 0,0 l/m 0,3 km/h (0 Bft) SO 135 7,3 C 9,3 C 1,6 km/h (1 Bft)
09.05.2012 03:28 10,4 C 81 % 0,0 l/m 0,3 km/h (0 Bft) O-SO 112 7,3 C 9,3 C 1,6 km/h (1 Bft)
09.05.2012 03:30 10,4 C 80 % 0,0 l/m 0,3 km/h (0 Bft) O-SO 112 7,1 C 9,3 C 1,6 km/h (1 Bft)
09.05.2012 03:32 10,4 C 80 % 0,0 l/m 0,6 km/h (0 Bft) O-SO 112 7,1 C 9,2 C 1,9 km/h (1 Bft)
09.05.2012 03:34 10,4 C 80 % 0,0 l/m 0,6 km/h (0 Bft) NO 45 7,1 C 9,2 C 1,9 km/h (1 Bft)
09.05.2012 03:36 10,3 C 80 % 0,0 l/m 0,8 km/h (0 Bft) N 360 7,0 C 9,2 C 2,4 km/h (1 Bft)
09.05.2012 03:38 10,3 C 80 % 0,0 l/m 0,8 km/h (0 Bft) SO 135 7,0 C 9,2 C 2,4 km/h (1 Bft)
09.05.2012 03:40 10,4 C 80 % 0,0 l/m 1,1 km/h (1 Bft) SO 135 7,1 C 9,2 C 2,6 km/h (1 Bft)
09.05.2012 03:42 10,4 C 80 % 0,0 l/m 1,1 km/h (1 Bft) SO 135 7,1 C 9,2 C 2,6 km/h (1 Bft)
09.05.2012 03:44 10,4 C 80 % 0,0 l/m 1,0 km/h (0 Bft) W 270 7,1 C 9,2 C 0,0 km/h (0 Bft)
09.05.2012 03:46 10,4 C 80 % 0,0 l/m 1,0 km/h (0 Bft) S 180 7,1 C 9,2 C 0,0 km/h (0 Bft)
09.05.2012 03:48 10,4 C 80 % 0,0 l/m 0,6 km/h (0 Bft) SO 135 7,1 C 9,2 C 0,0 km/h (0 Bft)
09.05.2012 03:50 10,4 C 81 % 0,0 l/m 0,3 km/h (0 Bft) S 180 7,3 C 9,2 C 0,0 km/h (0 Bft)
09.05.2012 03:52 10,4 C 81 % 0,0 l/m 0,0 km/h (0 Bft) O 90 7,3 C 9,1 C 0,0 km/h (0 Bft)
09.05.2012 03:54 10,3 C 81 % 0,0 l/m 0,0 km/h (0 Bft) S 180 7,2 C 9,1 C 0,0 km/h (0 Bft)
09.05.2012 03:56 10,3 C 81 % 0,0 l/m 0,0 km/h (0 Bft) N 360 7,2 C 9,1 C 0,0 km/h (0 Bft)
09.05.2012 03:58 10,3 C 80 % 0,0 l/m 0,0 km/h (0 Bft) NW 315 7,0 C 9,1 C 0,0 km/h (0 Bft)
09.05.2012 04:00 10,3 C 80 % 0,0 l/m 0,0 km/h (0 Bft) W 270 7,0 C 9,1 C 0,0 km/h (0 Bft)
09.05.2012 04:02 10,2 C 80 % 0,0 l/m 0,2 km/h (0 Bft) W-SW 247 6,9 C 9,0 C 2,1 km/h (1 Bft)
09.05.2012 04:04 10,3 C 80 % 0,0 l/m 0,2 km/h (0 Bft) W-SW 247 7,0 C 9,0 C 2,1 km/h (1 Bft)
09.05.2012 04:06 10,2 C 80 % 0,0 l/m 0,2 km/h (0 Bft) SO 135 6,9 C 9,0 C 0,0 km/h (0 Bft)
09.05.2012 04:08 10,3 C 80 % 0,0 l/m 0,2 km/h (0 Bft) SO 135 7,0 C 9,0 C 0,0 km/h (0 Bft)
09.05.2012 04:10 10,3 C 80 % 0,0 l/m 0,2 km/h (0 Bft) S-SW 202 7,0 C 9,0 C 0,0 km/h (0 Bft)
09.05.2012 04:12 10,3 C 80 % 0,0 l/m 0,0 km/h (0 Bft) O 90 7,0 C 9,0 C 0,0 km/h (0 Bft)
09.05.2012 04:14 10,3 C 81 % 0,0 l/m 0,0 km/h (0 Bft) O-SO 112 7,2 C 9,0 C 0,0 km/h (0 Bft)
09.05.2012 04:16 10,3 C 81 % 0,0 l/m 0,0 km/h (0 Bft) W-NW 292 7,2 C 9,0 C 0,0 km/h (0 Bft)
09.05.2012 04:18 10,3 C 80 % 0,0 l/m 0,0 km/h (0 Bft) N-NW 337 7,0 C 9,0 C 0,0 km/h (0 Bft)
09.05.2012 04:20 10,3 C 80 % 0,0 l/m 0,0 km/h (0 Bft) N 360 7,0 C 8,9 C 0,0 km/h (0 Bft)
09.05.2012 04:22 10,3 C 80 % 0,0 l/m 0,0 km/h (0 Bft) W 270 7,0 C 8,9 C 0,0 km/h (0 Bft)
09.05.2012 04:24 10,2 C 80 % 0,0 l/m 0,0 km/h (0 Bft) W 270 6,9 C 8,9 C 0,0 km/h (0 Bft)
09.05.2012 04:26 10,2 C 80 % 0,0 l/m 0,0 km/h (0 Bft) SW 225 6,9 C 8,9 C 0,0 km/h (0 Bft)
09.05.2012 04:28 10,2 C 80 % 0,0 l/m 0,0 km/h (0 Bft) NO 45 6,9 C 8,9 C 0,0 km/h (0 Bft)
09.05.2012 04:30 10,3 C 81 % 0,0 l/m 0,0 km/h (0 Bft) SW 225 7,2 C 8,9 C 0,0 km/h (0 Bft)
09.05.2012 04:32 10,2 C 81 % 0,0 l/m 0,0 km/h (0 Bft) NO 45 7,1 C 8,9 C 0,0 km/h (0 Bft)
09.05.2012 04:34 10,3 C 81 % 0,0 l/m 0,0 km/h (0 Bft) N-NW 337 7,2 C 8,9 C 0,0 km/h (0 Bft)
09.05.2012 04:36 10,3 C 81 % 0,0 l/m 0,0 km/h (0 Bft) W-SW 247 7,2 C 8,9 C 0,0 km/h (0 Bft)
09.05.2012 04:38 10,3 C 81 % 0,0 l/m 0,3 km/h (0 Bft) W-NW 292 7,2 C 9,0 C 1,8 km/h (1 Bft)
09.05.2012 04:40 10,3 C 81 % 0,0 l/m 0,5 km/h (0 Bft) N-NO 22 7,2 C 9,0 C 1,8 km/h (1 Bft)
09.05.2012 04:42 10,2 C 81 % 0,0 l/m 0,5 km/h (0 Bft) SW 225 7,1 C 9,0 C 0,0 km/h (0 Bft)
09.05.2012 04:44 10,3 C 81 % 0,0 l/m 0,5 km/h (0 Bft) O-SO 112 7,2 C 9,0 C 2,4 km/h (1 Bft)
09.05.2012 04:46 10,3 C 81 % 0,0 l/m 0,8 km/h (0 Bft) O 90 7,2 C 9,0 C 2,4 km/h (1 Bft)
09.05.2012 04:48 10,2 C 81 % 0,0 l/m 0,6 km/h (0 Bft) N 360 7,1 C 9,1 C 1,8 km/h (1 Bft)
09.05.2012 04:50 10,2 C 81 % 0,0 l/m 0,5 km/h (0 Bft) NO 45 7,1 C 9,1 C 0,0 km/h (0 Bft)
09.05.2012 04:52 10,3 C 81 % 0,0 l/m 0,3 km/h (0 Bft) N-NO 22 7,2 C 9,1 C 0,0 km/h (0 Bft)
09.05.2012 04:54 10,3 C 81 % 0,0 l/m 0,3 km/h (0 Bft) O 90 7,2 C 9,1 C 0,0 km/h (0 Bft)
09.05.2012 04:56 10,3 C 81 % 0,0 l/m 0,0 km/h (0 Bft) NO 45 7,2 C 9,2 C 0,0 km/h (0 Bft)
09.05.2012 04:58 10,3 C 81 % 0,0 l/m 0,0 km/h (0 Bft) N-NO 22 7,2 C 9,2 C 0,0 km/h (0 Bft)
09.05.2012 05:00 10,4 C 81 % 0,0 l/m 0,0 km/h (0 Bft) N-NO 22 7,3 C 9,3 C 0,0 km/h (0 Bft)
09.05.2012 05:02 10,4 C 81 % 0,0 l/m 0,0 km/h (0 Bft) NO 45 7,3 C 9,3 C 0,0 km/h (0 Bft)
09.05.2012 05:04 10,4 C 81 % 0,0 l/m 0,0 km/h (0 Bft) S-SW 202 7,3 C 9,3 C 0,0 km/h (0 Bft)
09.05.2012 05:06 10,5 C 81 % 0,0 l/m 0,0 km/h (0 Bft) S-SO 157 7,4 C 9,3 C 0,0 km/h (0 Bft)
09.05.2012 05:08 10,5 C 81 % 0,0 l/m 0,0 km/h (0 Bft) S-SO 157 7,4 C 9,3 C 0,0 km/h (0 Bft)
09.05.2012 05:10 10,4 C 81 % 0,0 l/m 0,0 km/h (0 Bft) N-NO 22 7,3 C 9,3 C 0,0 km/h (0 Bft)
09.05.2012 05:12 10,5 C 81 % 0,0 l/m 0,0 km/h (0 Bft) N-NO 22 7,4 C 9,3 C 0,0 km/h (0 Bft)
09.05.2012 05:14 10,5 C 81 % 0,0 l/m 0,0 km/h (0 Bft) S 180 7,4 C 9,3 C 0,0 km/h (0 Bft)
09.05.2012 05:16 10,4 C 81 % 0,0 l/m 0,0 km/h (0 Bft) W-SW 247 7,3 C 9,3 C 0,0 km/h (0 Bft)
09.05.2012 05:18 10,4 C 81 % 0,0 l/m 0,0 km/h (0 Bft) N-NW 337 7,3 C 9,3 C 0,0 km/h (0 Bft)
09.05.2012 05:20 10,4 C 81 % 0,0 l/m 0,0 km/h (0 Bft) NO 45 7,3 C 9,3 C 0,0 km/h (0 Bft)
09.05.2012 05:22 10,4 C 81 % 0,0 l/m 0,0 km/h (0 Bft) NO 45 7,3 C 9,3 C 0,0 km/h (0 Bft)
09.05.2012 05:24 10,4 C 81 % 0,0 l/m 0,0 km/h (0 Bft) O-SO 112 7,3 C 9,3 C 0,0 km/h (0 Bft)
09.05.2012 05:26 10,4 C 81 % 0,0 l/m 0,0 km/h (0 Bft) S-SO 157 7,3 C 9,3 C 0,0 km/h (0 Bft)
09.05.2012 05:28 10,5 C 81 % 0,0 l/m 0,0 km/h (0 Bft) SO 135 7,4 C 9,3 C 0,0 km/h (0 Bft)
09.05.2012 05:30 10,5 C 81 % 0,0 l/m 0,0 km/h (0 Bft) SO 135 7,4 C 9,3 C 0,0 km/h (0 Bft)
09.05.2012 05:32 10,5 C 81 % 0,0 l/m 0,2 km/h (0 Bft) O-SO 112 7,4 C 9,4 C 1,6 km/h (1 Bft)
09.05.2012 05:34 10,7 C 81 % 0,0 l/m 0,0 km/h (0 Bft) SO 135 7,6 C 9,4 C 1,6 km/h (1 Bft)
09.05.2012 05:36 10,7 C 81 % 0,0 l/m 0,0 km/h (0 Bft) SO 135 7,6 C 9,4 C 0,0 km/h (0 Bft)
09.05.2012 05:38 10,7 C 81 % 0,0 l/m 0,0 km/h (0 Bft) O-SO 112 7,6 C 9,4 C 0,0 km/h (0 Bft)
09.05.2012 05:40 10,7 C 81 % 0,0 l/m 0,0 km/h (0 Bft) O-SO 112 7,6 C 9,4 C 0,0 km/h (0 Bft)
09.05.2012 05:42 10,7 C 81 % 0,0 l/m 0,0 km/h (0 Bft) N-NW 337 7,6 C 9,4 C 0,0 km/h (0 Bft)
09.05.2012 05:44 10,7 C 81 % 0,0 l/m 0,0 km/h (0 Bft) NW 315 7,6 C 9,4 C 0,0 km/h (0 Bft)
09.05.2012 05:46 10,6 C 81 % 0,0 l/m 0,0 km/h (0 Bft) W-NW 292 7,5 C 9,4 C 0,0 km/h (0 Bft)
09.05.2012 05:48 10,6 C 81 % 0,0 l/m 0,0 km/h (0 Bft) W-NW 292 7,5 C 9,4 C 0,0 km/h (0 Bft)
09.05.2012 05:50 10,5 C 81 % 0,0 l/m 0,0 km/h (0 Bft) N-NW 337 7,4 C 9,4 C 0,0 km/h (0 Bft)
09.05.2012 05:52 10,4 C 81 % 0,0 l/m 0,0 km/h (0 Bft) N-NW 337 7,3 C 9,4 C 0,0 km/h (0 Bft)
09.05.2012 05:54 10,5 C 81 % 0,0 l/m 0,0 km/h (0 Bft) NO 45 7,4 C 9,4 C 0,0 km/h (0 Bft)
09.05.2012 05:56 10,5 C 81 % 0,0 l/m 0,0 km/h (0 Bft) N-NO 22 7,4 C 9,5 C 0,0 km/h (0 Bft)
09.05.2012 05:58 10,5 C 81 % 0,0 l/m 0,0 km/h (0 Bft) NO 45 7,4 C 9,5 C 1,6 km/h (1 Bft)
09.05.2012 06:00 10,7 C 81 % 0,0 l/m 0,0 km/h (0 Bft) O 90 7,6 C 9,5 C 1,6 km/h (1 Bft)
09.05.2012 06:02 10,7 C 81 % 0,0 l/m 0,0 km/h (0 Bft) SO 135 7,6 C 9,5 C 1,6 km/h (1 Bft)
09.05.2012 06:04 10,7 C 81 % 0,0 l/m 0,2 km/h (0 Bft) SO 135 7,6 C 9,6 C 1,6 km/h (1 Bft)
09.05.2012 06:06 10,7 C 81 % 0,0 l/m 0,2 km/h (0 Bft) S-SO 157 7,6 C 9,6 C 0,0 km/h (0 Bft)
09.05.2012 06:08 10,7 C 81 % 0,0 l/m 0,2 km/h (0 Bft) S 180 7,6 C 9,6 C 0,0 km/h (0 Bft)
09.05.2012 06:10 10,7 C 81 % 0,0 l/m 0,2 km/h (0 Bft) S 180 7,6 C 9,6 C 0,0 km/h (0 Bft)
09.05.2012 06:12 10,7 C 81 % 0,0 l/m 0,2 km/h (0 Bft) W 270 7,6 C 9,6 C 0,0 km/h (0 Bft)
09.05.2012 06:14 10,7 C 81 % 0,0 l/m 0,0 km/h (0 Bft) N-NW 337 7,6 C 9,6 C 0,0 km/h (0 Bft)
09.05.2012 06:16 10,6 C 81 % 0,0 l/m 0,0 km/h (0 Bft) NO 45 7,5 C 9,6 C 0,0 km/h (0 Bft)
09.05.2012 06:18 10,7 C 81 % 0,0 l/m 0,0 km/h (0 Bft) NO 45 7,6 C 9,6 C 0,0 km/h (0 Bft)
09.05.2012 06:20 10,8 C 81 % 0,0 l/m 0,2 km/h (0 Bft) SO 135 7,7 C 9,6 C 1,9 km/h (1 Bft)
09.05.2012 06:22 10,8 C 81 % 0,0 l/m 0,6 km/h (0 Bft) SO 135 7,7 C 9,6 C 2,9 km/h (1 Bft)
09.05.2012 06:24 10,9 C 81 % 0,0 l/m 1,4 km/h (1 Bft) O-SO 112 7,8 C 9,6 C 5,0 km/h (1 Bft)
09.05.2012 06:26 10,9 C 81 % 0,0 l/m 1,8 km/h (1 Bft) O-SO 112 7,8 C 9,6 C 6,9 km/h (2 Bft)
09.05.2012 06:28 10,9 C 81 % 0,0 l/m 1,9 km/h (1 Bft) NO 45 7,8 C 9,7 C 2,4 km/h (1 Bft)
09.05.2012 06:30 10,9 C 81 % 0,0 l/m 2,1 km/h (1 Bft) N 360 7,8 C 9,8 C 0,0 km/h (0 Bft)
09.05.2012 06:32 10,8 C 81 % 0,0 l/m 1,9 km/h (1 Bft) N 360 7,7 C 9,8 C 1,9 km/h (1 Bft)
09.05.2012 06:34 10,9 C 82 % 0,0 l/m 1,8 km/h (1 Bft) N 360 7,9 C 9,8 C 3,4 km/h (1 Bft)
09.05.2012 06:36 10,9 C 82 % 0,0 l/m 1,4 km/h (1 Bft) N-NO 22 7,9 C 9,9 C 3,4 km/h (1 Bft)
09.05.2012 06:38 10,9 C 82 % 0,0 l/m 1,0 km/h (0 Bft) N-NO 22 7,9 C 9,9 C 2,3 km/h (1 Bft)
09.05.2012 06:40 10,9 C 82 % 0,0 l/m 0,8 km/h (0 Bft) SO 135 7,9 C 9,9 C 0,0 km/h (0 Bft)
09.05.2012 06:42 11,1 C 82 % 0,0 l/m 0,8 km/h (0 Bft) SO 135 8,1 C 10,0 C 0,0 km/h (0 Bft)
09.05.2012 06:44 11,1 C 82 % 0,0 l/m 0,6 km/h (0 Bft) S-SO 157 8,1 C 10,1 C 0,0 km/h (0 Bft)
09.05.2012 06:46 11,2 C 82 % 0,0 l/m 0,2 km/h (0 Bft) SO 135 8,2 C 10,2 C 0,0 km/h (0 Bft)
09.05.2012 06:48 11,2 C 82 % 0,0 l/m 0,2 km/h (0 Bft) O 90 8,2 C 10,2 C 0,0 km/h (0 Bft)
09.05.2012 06:50 11,2 C 82 % 0,0 l/m 0,2 km/h (0 Bft) SO 135 8,2 C 10,3 C 0,0 km/h (0 Bft)
09.05.2012 06:52 11,3 C 82 % 0,0 l/m 0,5 km/h (0 Bft) O 90 8,3 C 10,4 C 2,3 km/h (1 Bft)
09.05.2012 06:54 11,5 C 82 % 0,0 l/m 0,6 km/h (0 Bft) N-NW 337 8,5 C 10,5 C 2,3 km/h (1 Bft)
09.05.2012 06:56 11,5 C 82 % 0,0 l/m 0,8 km/h (0 Bft) SO 135 8,5 C 10,7 C 2,7 km/h (1 Bft)
09.05.2012 06:58 11,5 C 82 % 0,0 l/m 1,1 km/h (1 Bft) O-NO 67 8,5 C 10,8 C 2,7 km/h (1 Bft)
09.05.2012 07:00 11,6 C 82 % 0,0 l/m 1,3 km/h (1 Bft) NO 45 8,6 C 11,0 C 2,6 km/h (1 Bft)
09.05.2012 07:02 11,6 C 82 % 0,0 l/m 1,1 km/h (1 Bft) O-SO 112 8,6 C 11,2 C 1,6 km/h (1 Bft)
09.05.2012 07:04 11,7 C 82 % 0,0 l/m 1,0 km/h (0 Bft) S-SO 157 8,7 C 11,3 C 1,6 km/h (1 Bft)
09.05.2012 07:06 11,9 C 81 % 0,0 l/m 0,8 km/h (0 Bft) O-SO 112 8,7 C 11,4 C 1,8 km/h (1 Bft)
09.05.2012 07:08 11,9 C 81 % 0,0 l/m 0,8 km/h (0 Bft) O 90 8,7 C 11,5 C 1,8 km/h (1 Bft)
09.05.2012 07:10 11,9 C 81 % 0,0 l/m 0,6 km/h (0 Bft) O-NO 67 8,7 C 11,6 C 1,6 km/h (1 Bft)
09.05.2012 07:12 12,0 C 81 % 0,0 l/m 0,6 km/h (0 Bft) O 90 8,8 C 11,7 C 2,7 km/h (1 Bft)
09.05.2012 07:14 12,1 C 81 % 0,0 l/m 0,6 km/h (0 Bft) N 360 8,9 C 11,8 C 2,7 km/h (1 Bft)
09.05.2012 07:16 12,0 C 81 % 0,0 l/m 0,6 km/h (0 Bft) O-SO 112 8,8 C 11,8 C 0,0 km/h (0 Bft)
09.05.2012 07:18 12,1 C 81 % 0,0 l/m 0,5 km/h (0 Bft) N-NO 22 8,9 C 11,9 C 0,0 km/h (0 Bft)
09.05.2012 07:20 12,0 C 80 % 0,0 l/m 0,3 km/h (0 Bft) N-NO 22 8,7 C 11,9 C 1,6 km/h (1 Bft)
09.05.2012 07:22 12,0 C 80 % 0,0 l/m 0,3 km/h (0 Bft) N-NO 22 8,7 C 11,9 C 1,6 km/h (1 Bft)
09.05.2012 07:24 12,0 C 79 % 0,0 l/m 0,2 km/h (0 Bft) N 360 8,5 C 12,0 C 2,1 km/h (1 Bft)
09.05.2012 07:26 12,1 C 79 % 0,0 l/m 0,5 km/h (0 Bft) N-NO 22 8,6 C 12,0 C 2,1 km/h (1 Bft)
09.05.2012 07:28 12,1 C 79 % 0,0 l/m 0,5 km/h (0 Bft) S-SO 157 8,6 C 12,0 C 2,1 km/h (1 Bft)
09.05.2012 07:30 12,1 C 79 % 0,0 l/m 0,3 km/h (0 Bft) S-SO 157 8,6 C 12,0 C 0,0 km/h (0 Bft)
09.05.2012 07:32 12,2 C 79 % 0,0 l/m 0,3 km/h (0 Bft) N-NO 22 8,7 C 12,0 C 0,0 km/h (0 Bft)
09.05.2012 07:34 12,3 C 79 % 0,0 l/m 0,6 km/h (0 Bft) N 360 8,8 C 12,0 C 2,1 km/h (1 Bft)
09.05.2012 07:36 12,2 C 79 % 0,0 l/m 0,5 km/h (0 Bft) NO 45 8,7 C 12,1 C 2,1 km/h (1 Bft)
09.05.2012 07:38 12,3 C 79 % 0,0 l/m 0,5 km/h (0 Bft) S 180 8,8 C 12,1 C 0,0 km/h (0 Bft)
09.05.2012 07:40 12,3 C 79 % 0,0 l/m 0,5 km/h (0 Bft) SO 135 8,8 C 12,1 C 0,0 km/h (0 Bft)
09.05.2012 07:42 12,4 C 79 % 0,0 l/m 0,5 km/h (0 Bft) NO 45 8,9 C 12,0 C 1,8 km/h (1 Bft)
09.05.2012 07:44 12,4 C 79 % 0,0 l/m 0,6 km/h (0 Bft) O 90 8,9 C 12,0 C 1,8 km/h (1 Bft)
09.05.2012 07:46 12,4 C 79 % 0,0 l/m 0,2 km/h (0 Bft) N 360 8,9 C 12,0 C 0,0 km/h (0 Bft)
09.05.2012 07:48 12,5 C 79 % 0,0 l/m 0,2 km/h (0 Bft) N 360 9,0 C 12,0 C 0,0 km/h (0 Bft)
09.05.2012 07:50 12,5 C 79 % 0,0 l/m 0,2 km/h (0 Bft) S-SO 157 9,0 C 12,0 C 1,9 km/h (1 Bft)
09.05.2012 07:52 12,5 C 79 % 0,0 l/m 0,8 km/h (0 Bft) S-SO 157 9,0 C 12,1 C 3,1 km/h (1 Bft)
09.05.2012 07:54 12,5 C 80 % 0,0 l/m 1,0 km/h (0 Bft) O-SO 112 9,1 C 12,1 C 3,1 km/h (1 Bft)
09.05.2012 07:56 12,5 C 79 % 0,0 l/m 1,0 km/h (0 Bft) N-NO 22 9,0 C 12,1 C 1,9 km/h (1 Bft)
09.05.2012 07:58 12,6 C 79 % 0,0 l/m 1,4 km/h (1 Bft) N 360 9,1 C 12,2 C 2,7 km/h (1 Bft)
09.05.2012 08:00 12,6 C 79 % 0,0 l/m 1,4 km/h (1 Bft) NO 45 9,1 C 12,2 C 2,7 km/h (1 Bft)
09.05.2012 08:02 12,8 C 79 % 0,0 l/m 1,1 km/h (1 Bft) W-SW 247 9,2 C 12,3 C 0,0 km/h (0 Bft)
09.05.2012 08:04 12,9 C 79 % 0,0 l/m 0,8 km/h (0 Bft) S-SW 202 9,3 C 12,4 C 1,6 km/h (1 Bft)
09.05.2012 08:06 13,1 C 79 % 0,0 l/m 0,6 km/h (0 Bft) S 180 9,5 C 12,7 C 1,6 km/h (1 Bft)
09.05.2012 08:08 13,3 C 79 % 0,0 l/m 0,6 km/h (0 Bft) S 180 9,7 C 13,0 C 0,0 km/h (0 Bft)
09.05.2012 08:10 13,5 C 78 % 0,0 l/m 0,5 km/h (0 Bft) S 180 9,7 C 13,3 C 0,0 km/h (0 Bft)
09.05.2012 08:12 13,6 C 78 % 0,0 l/m 0,5 km/h (0 Bft) S 180 9,8 C 13,6 C 0,0 km/h (0 Bft)
09.05.2012 08:14 13,7 C 78 % 0,0 l/m 0,3 km/h (0 Bft) S 180 9,9 C 13,9 C 0,0 km/h (0 Bft)
09.05.2012 08:16 13,7 C 77 % 0,0 l/m 0,3 km/h (0 Bft) S-SO 157 9,7 C 14,1 C 1,6 km/h (1 Bft)
09.05.2012 08:18 13,9 C 77 % 0,0 l/m 0,5 km/h (0 Bft) W-SW 247 9,9 C 14,1 C 2,9 km/h (1 Bft)
09.05.2012 08:20 13,9 C 76 % 0,0 l/m 0,6 km/h (0 Bft) W 270 9,7 C 14,2 C 2,9 km/h (1 Bft)
09.05.2012 08:22 14,1 C 77 % 0,0 l/m 1,0 km/h (0 Bft) S 180 10,1 C 14,2 C 2,3 km/h (1 Bft)
09.05.2012 08:24 14,3 C 76 % 0,0 l/m 1,3 km/h (1 Bft) S-SO 157 10,1 C 14,3 C 2,1 km/h (1 Bft)
09.05.2012 08:26 14,3 C 76 % 0,0 l/m 1,3 km/h (1 Bft) O-SO 112 10,1 C 14,6 C 2,1 km/h (1 Bft)
09.05.2012 08:28 14,5 C 76 % 0,0 l/m 1,3 km/h (1 Bft) S 180 10,3 C 14,8 C 0,0 km/h (0 Bft)
09.05.2012 08:30 14,5 C 75 % 0,0 l/m 1,0 km/h (0 Bft) O-NO 67 10,1 C 15,0 C 0,0 km/h (0 Bft)
09.05.2012 08:32 14,7 C 75 % 0,0 l/m 0,6 km/h (0 Bft) S 180 10,3 C 15,1 C 0,0 km/h (0 Bft)
09.05.2012 08:34 14,7 C 75 % 0,0 l/m 0,6 km/h (0 Bft) W-SW 247 10,3 C 15,3 C 1,8 km/h (1 Bft)
09.05.2012 08:36 14,8 C 75 % 0,0 l/m 0,6 km/h (0 Bft) W-SW 247 10,4 C 15,4 C 1,8 km/h (1 Bft)
09.05.2012 08:38 14,8 C 75 % 0,0 l/m 0,8 km/h (0 Bft) S 180 10,4 C 15,4 C 1,9 km/h (1 Bft)
09.05.2012 08:40 15,1 C 74 % 0,0 l/m 0,8 km/h (0 Bft) SO 135 10,5 C 15,5 C 1,9 km/h (1 Bft)
09.05.2012 08:42 15,1 C 73 % 0,0 l/m 1,0 km/h (0 Bft) S 180 10,3 C 15,5 C 1,6 km/h (1 Bft)
09.05.2012 08:44 15,1 C 73 % 0,0 l/m 1,0 km/h (0 Bft) W-SW 247 10,3 C 15,6 C 0,0 km/h (0 Bft)
09.05.2012 08:46 15,0 C 73 % 0,0 l/m 0,6 km/h (0 Bft) NW 315 10,2 C 15,7 C 0,0 km/h (0 Bft)
09.05.2012 08:48 15,0 C 72 % 0,0 l/m 0,5 km/h (0 Bft) N-NW 337 10,0 C 15,7 C 0,0 km/h (0 Bft)
09.05.2012 08:50 15,1 C 72 % 0,0 l/m 0,2 km/h (0 Bft) N-NW 337 10,1 C 15,8 C 0,0 km/h (0 Bft)
09.05.2012 08:52 15,2 C 72 % 0,0 l/m 0,0 km/h (0 Bft) W-NW 292 10,2 C 15,8 C 0,0 km/h (0 Bft)
09.05.2012 08:54 15,3 C 71 % 0,0 l/m 0,0 km/h (0 Bft) W-SW 247 10,1 C 16,0 C 0,0 km/h (0 Bft)
09.05.2012 08:56 15,5 C 71 % 0,0 l/m 0,3 km/h (0 Bft) W-NW 292 10,3 C 16,1 C 1,6 km/h (1 Bft)
09.05.2012 08:58 15,5 C 71 % 0,0 l/m 0,6 km/h (0 Bft) N 360 10,3 C 16,3 C 2,7 km/h (1 Bft)
09.05.2012 09:00 15,7 C 70 % 0,0 l/m 0,8 km/h (0 Bft) W 270 10,2 C 16,4 C 2,7 km/h (1 Bft)
09.05.2012 09:02 15,7 C 70 % 0,0 l/m 1,0 km/h (0 Bft) N 360 10,2 C 16,5 C 0,0 km/h (0 Bft)
09.05.2012 09:04 15,8 C 69 % 0,0 l/m 1,3 km/h (1 Bft) S-SW 202 10,1 C 16,6 C 4,5 km/h (1 Bft)
09.05.2012 09:06 15,7 C 69 % 0,0 l/m 1,8 km/h (1 Bft) W-SW 247 10,0 C 16,7 C 5,5 km/h (1 Bft)
09.05.2012 09:08 16,3 C 68 % 0,0 l/m 2,4 km/h (1 Bft) W 270 10,4 C 16,6 C 5,5 km/h (1 Bft)
09.05.2012 09:10 16,7 C 69 % 0,0 l/m 2,4 km/h (1 Bft) S 180 11,0 C 17,2 C 4,2 km/h (1 Bft)
09.05.2012 09:12 16,7 C 68 % 0,0 l/m 2,6 km/h (1 Bft) O-SO 112 10,8 C 18,4 C 2,7 km/h (1 Bft)
09.05.2012 09:14 17,2 C 68 % 0,0 l/m 3,2 km/h (1 Bft) W-NW 292 11,2 C 19,0 C 4,0 km/h (1 Bft)
09.05.2012 09:16 17,7 C 67 % 0,0 l/m 2,9 km/h (1 Bft) W 270 11,5 C 19,8 C 4,0 km/h (1 Bft)
09.05.2012 09:18 18,1 C 63 % 0,0 l/m 2,6 km/h (1 Bft) NW 315 10,9 C 20,8 C 4,3 km/h (1 Bft)
09.05.2012 09:20 18,0 C 64 % 0,0 l/m 2,4 km/h (1 Bft) W 270 11,1 C 21,6 C 4,3 km/h (1 Bft)
09.05.2012 09:22 17,9 C 63 % 0,0 l/m 2,4 km/h (1 Bft) W 270 10,8 C 21,6 C 3,9 km/h (1 Bft)
09.05.2012 09:24 18,2 C 64 % 0,0 l/m 2,4 km/h (1 Bft) W-SW 247 11,3 C 21,2 C 3,9 km/h (1 Bft)
09.05.2012 09:26 18,3 C 63 % 0,0 l/m 2,6 km/h (1 Bft) SW 225 11,1 C 21,4 C 6,8 km/h (2 Bft)
09.05.2012 09:28 18,4 C 62 % 0,0 l/m 3,1 km/h (1 Bft) W-SW 247 11,0 C 21,5 C 6,8 km/h (2 Bft)
09.05.2012 09:30 18,6 C 61 % 0,0 l/m 3,2 km/h (1 Bft) W-SW 247 10,9 C 21,8 C 3,7 km/h (1 Bft)
09.05.2012 09:32 19,1 C 61 % 0,0 l/m 3,4 km/h (1 Bft) S-SW 202 11,4 C 22,0 C 4,0 km/h (1 Bft)
09.05.2012 09:34 19,3 C 60 % 0,0 l/m 3,7 km/h (1 Bft) W-SW 247 11,3 C 22,4 C 4,3 km/h (1 Bft)
09.05.2012 09:36 19,3 C 58 % 0,0 l/m 4,0 km/h (1 Bft) SW 225 10,8 C 22,8 C 5,3 km/h (1 Bft)
09.05.2012 09:38 19,5 C 57 % 0,0 l/m 3,9 km/h (1 Bft) W 270 10,8 C 22,8 C 5,3 km/h (1 Bft)
09.05.2012 09:40 19,2 C 58 % 0,0 l/m 3,9 km/h (1 Bft) S 180 10,7 C 22,6 C 2,9 km/h (1 Bft)
09.05.2012 09:42 19,6 C 58 % 0,0 l/m 3,5 km/h (1 Bft) W-SW 247 11,1 C 22,3 C 2,9 km/h (1 Bft)
09.05.2012 09:44 19,9 C 57 % 0,0 l/m 3,5 km/h (1 Bft) W-NW 292 11,1 C 22,7 C 3,7 km/h (1 Bft)
09.05.2012 09:46 20,1 C 57 % 0,0 l/m 2,9 km/h (1 Bft) W-SW 247 11,3 C 23,1 C 3,7 km/h (1 Bft)
09.05.2012 09:48 20,3 C 53 % 0,0 l/m 2,6 km/h (1 Bft) NW 315 10,4 C 23,4 C 2,4 km/h (1 Bft)
09.05.2012 09:50 20,3 C 55 % 0,0 l/m 2,4 km/h (1 Bft) W 270 11,0 C 23,6 C 5,0 km/h (1 Bft)
09.05.2012 09:52 20,4 C 53 % 0,0 l/m 3,1 km/h (1 Bft) N-NW 337 10,5 C 23,8 C 5,5 km/h (1 Bft)
09.05.2012 09:54 20,3 C 54 % 0,0 l/m 2,9 km/h (1 Bft) S 180 10,7 C 23,7 C 5,5 km/h (1 Bft)
09.05.2012 09:56 20,7 C 54 % 0,0 l/m 2,7 km/h (1 Bft) S 180 11,1 C 24,0 C 7,2 km/h (2 Bft)
09.05.2012 09:58 20,6 C 52 % 0,0 l/m 2,9 km/h (1 Bft) W-SW 247 10,4 C 24,4 C 5,8 km/h (2 Bft)
09.05.2012 10:00 20,4 C 52 % 0,0 l/m 3,1 km/h (1 Bft) NW 315 10,2 C 24,3 C 5,8 km/h (2 Bft)
09.05.2012 10:02 20,2 C 53 % 0,0 l/m 2,9 km/h (1 Bft) W-SW 247 10,3 C 23,7 C 4,0 km/h (1 Bft)
09.05.2012 10:04 20,3 C 53 % 0,0 l/m 2,6 km/h (1 Bft) S-SO 157 10,4 C 23,2 C 4,0 km/h (1 Bft)
09.05.2012 10:06 20,1 C 52 % 0,0 l/m 2,7 km/h (1 Bft) S-SW 202 9,9 C 22,9 C 4,8 km/h (1 Bft)
09.05.2012 10:08 20,0 C 52 % 0,0 l/m 3,1 km/h (1 Bft) W-NW 292 9,8 C 22,4 C 4,8 km/h (1 Bft)
09.05.2012 10:10 20,0 C 51 % 0,0 l/m 2,9 km/h (1 Bft) NW 315 9,6 C 21,8 C 3,1 km/h (1 Bft)
09.05.2012 10:12 20,1 C 52 % 0,0 l/m 2,9 km/h (1 Bft) N-NW 337 9,9 C 21,6 C 2,9 km/h (1 Bft)
09.05.2012 10:14 19,9 C 53 % 0,0 l/m 2,7 km/h (1 Bft) N 360 10,0 C 21,7 C 2,3 km/h (1 Bft)
09.05.2012 10:16 20,0 C 52 % 0,0 l/m 2,7 km/h (1 Bft) N-NO 22 9,8 C 21,8 C 2,6 km/h (1 Bft)
09.05.2012 10:18 19,8 C 50 % 0,0 l/m 2,7 km/h (1 Bft) W-SW 247 9,1 C 21,6 C 6,1 km/h (2 Bft)
09.05.2012 10:20 19,7 C 51 % 0,0 l/m 2,6 km/h (1 Bft) S-SW 202 9,3 C 21,3 C 6,1 km/h (2 Bft)
09.05.2012 10:22 20,5 C 52 % 0,0 l/m 2,7 km/h (1 Bft) SW 225 10,3 C 21,3 C 6,6 km/h (2 Bft)
09.05.2012 10:24 20,4 C 51 % 0,0 l/m 3,4 km/h (1 Bft) S-SO 157 9,9 C 21,8 C 6,6 km/h (2 Bft)
09.05.2012 10:26 20,7 C 49 % 0,0 l/m 4,0 km/h (1 Bft) S-SO 157 9,6 C 22,0 C 7,6 km/h (2 Bft)
09.05.2012 10:28 21,0 C 50 % 0,0 l/m 4,0 km/h (1 Bft) O-SO 112 10,2 C 22,2 C 5,1 km/h (1 Bft)
09.05.2012 10:30 21,2 C 48 % 0,0 l/m 4,0 km/h (1 Bft) W-SW 247 9,7 C 22,5 C 5,0 km/h (1 Bft)
09.05.2012 10:32 21,3 C 49 % 0,0 l/m 4,3 km/h (1 Bft) W-SW 247 10,1 C 22,6 C 5,0 km/h (1 Bft)
09.05.2012 10:34 21,4 C 47 % 0,0 l/m 4,3 km/h (1 Bft) W-NW 292 9,6 C 22,7 C 6,3 km/h (2 Bft)
09.05.2012 10:36 21,5 C 48 % 0,0 l/m 3,9 km/h (1 Bft) W 270 10,0 C 22,7 C 7,7 km/h (2 Bft)
09.05.2012 10:38 21,6 C 48 % 0,0 l/m 3,4 km/h (1 Bft) S 180 10,1 C 22,9 C 2,6 km/h (1 Bft)
09.05.2012 10:40 21,9 C 48 % 0,0 l/m 3,1 km/h (1 Bft) S-SO 157 10,4 C 23,3 C 1,9 km/h (1 Bft)
09.05.2012 10:42 22,1 C 48 % 0,0 l/m 2,1 km/h (1 Bft) O-NO 67 10,6 C 24,0 C 2,4 km/h (1 Bft)
09.05.2012 10:44 22,3 C 48 % 0,0 l/m 1,6 km/h (1 Bft) S 180 10,8 C 24,3 C 2,4 km/h (1 Bft)
09.05.2012 10:46 22,1 C 47 % 0,0 l/m 1,0 km/h (0 Bft) N-NO 22 10,3 C 24,5 C 3,1 km/h (1 Bft)
09.05.2012 10:48 22,0 C 46 % 0,0 l/m 1,4 km/h (1 Bft) N 360 9,8 C 24,2 C 3,1 km/h (1 Bft)
09.05.2012 10:50 22,0 C 48 % 0,0 l/m 1,6 km/h (1 Bft) S 180 10,5 C 24,0 C 3,1 km/h (1 Bft)
09.05.2012 10:52 22,4 C 49 % 0,0 l/m 1,8 km/h (1 Bft) W 270 11,2 C 24,2 C 4,0 km/h (1 Bft)
09.05.2012 10:54 22,7 C 46 % 0,0 l/m 2,3 km/h (1 Bft) N-NO 22 10,5 C 24,3 C 4,0 km/h (1 Bft)
09.05.2012 10:56 22,7 C 45 % 0,0 l/m 2,6 km/h (1 Bft) SW 225 10,1 C 24,3 C 8,0 km/h (2 Bft)
09.05.2012 10:58 22,7 C 46 % 0,0 l/m 2,9 km/h (1 Bft) S 180 10,5 C 24,3 C 7,4 km/h (2 Bft)
09.05.2012 11:00 22,8 C 46 % 0,0 l/m 3,1 km/h (1 Bft) SO 135 10,6 C 24,4 C 9,2 km/h (2 Bft)
09.05.2012 11:02 22,9 C 46 % 0,0 l/m 3,9 km/h (1 Bft) N-NW 337 10,7 C 24,3 C 0,0 km/h (0 Bft)
09.05.2012 11:04 22,6 C 46 % 0,0 l/m 3,7 km/h (1 Bft) W-SW 247 10,4 C 24,2 C 0,0 km/h (0 Bft)
09.05.2012 11:06 22,6 C 43 % 0,0 l/m 3,7 km/h (1 Bft) W-SW 247 9,4 C 24,2 C 9,2 km/h (2 Bft)
09.05.2012 11:08 22,2 C 45 % 0,0 l/m 3,2 km/h (1 Bft) SO 135 9,7 C 23,8 C 3,7 km/h (1 Bft)
09.05.2012 11:10 22,0 C 46 % 0,0 l/m 3,5 km/h (1 Bft) SO 135 9,8 C 23,6 C 9,5 km/h (2 Bft)
09.05.2012 11:12 21,8 C 47 % 0,0 l/m 3,5 km/h (1 Bft) S 180 10,0 C 23,2 C 9,5 km/h (2 Bft)
09.05.2012 11:14 21,8 C 47 % 0,0 l/m 4,5 km/h (1 Bft) S-SO 157 10,0 C 22,6 C 10,6 km/h (2 Bft)
09.05.2012 11:16 21,7 C 47 % 0,0 l/m 5,5 km/h (1 Bft) O-SO 112 9,9 C 22,0 C 10,6 km/h (2 Bft)
09.05.2012 11:18 21,9 C 48 % 0,0 l/m 5,8 km/h (2 Bft) O-SO 112 10,4 C 21,7 C 8,2 km/h (2 Bft)
09.05.2012 11:20 22,0 C 47 % 0,0 l/m 6,9 km/h (2 Bft) W-SW 247 10,2 C 21,3 C 8,2 km/h (2 Bft)
09.05.2012 11:22 22,3 C 47 % 0,0 l/m 7,1 km/h (2 Bft) S 180 10,4 C 21,1 C 8,9 km/h (2 Bft)
09.05.2012 11:24 22,0 C 47 % 0,0 l/m 6,9 km/h (2 Bft) SO 135 10,2 C 21,2 C 8,9 km/h (2 Bft)
09.05.2012 11:26 22,1 C 48 % 0,0 l/m 6,4 km/h (2 Bft) O 90 10,6 C 21,4 C 13,4 km/h (3 Bft)
09.05.2012 11:28 22,0 C 48 % 0,0 l/m 6,4 km/h (2 Bft) O-SO 112 10,5 C 21,4 C 7,6 km/h (2 Bft)
09.05.2012 11:30 22,0 C 48 % 0,0 l/m 6,1 km/h (2 Bft) O-SO 112 10,5 C 21,4 C 7,6 km/h (2 Bft)
09.05.2012 11:32 22,0 C 48 % 0,0 l/m 6,1 km/h (2 Bft) SO 135 10,5 C 21,4 C 7,2 km/h (2 Bft)
09.05.2012 11:34 22,0 C 49 % 0,0 l/m 5,8 km/h (2 Bft) SO 135 10,8 C 21,3 C 7,2 km/h (2 Bft)
09.05.2012 11:36 22,0 C 49 % 0,0 l/m 6,1 km/h (2 Bft) SO 135 10,8 C 21,2 C 7,1 km/h (2 Bft)
09.05.2012 11:38 21,8 C 49 % 0,0 l/m 6,4 km/h (2 Bft) SO 135 10,6 C 21,1 C 7,6 km/h (2 Bft)
09.05.2012 11:40 22,1 C 48 % 0,0 l/m 6,3 km/h (2 Bft) S 180 10,6 C 20,9 C 10,3 km/h (2 Bft)
09.05.2012 11:42 22,3 C 49 % 0,0 l/m 6,3 km/h (2 Bft) S 180 11,1 C 20,9 C 10,3 km/h (2 Bft)
09.05.2012 11:44 22,1 C 48 % 0,0 l/m 6,9 km/h (2 Bft) S 180 10,6 C 20,7 C 13,0 km/h (3 Bft)
09.05.2012 11:46 21,9 C 48 % 0,0 l/m 7,4 km/h (2 Bft) S 180 10,4 C 20,4 C 13,0 km/h (3 Bft)
09.05.2012 11:48 21,9 C 48 % 0,0 l/m 7,4 km/h (2 Bft) SO 135 10,4 C 20,2 C 13,2 km/h (3 Bft)
09.05.2012 11:50 21,8 C 50 % 0,0 l/m 7,7 km/h (2 Bft) S-SW 202 10,9 C 20,0 C 13,2 km/h (3 Bft)
09.05.2012 11:52 21,8 C 49 % 0,0 l/m 7,6 km/h (2 Bft) S-SO 157 10,6 C 20,1 C 9,5 km/h (2 Bft)
09.05.2012 11:54 22,0 C 48 % 0,0 l/m 7,6 km/h (2 Bft) S 180 10,5 C 20,2 C 9,8 km/h (2 Bft)
09.05.2012 11:56 21,8 C 50 % 0,0 l/m 7,1 km/h (2 Bft) S 180 10,9 C 20,4 C 9,8 km/h (2 Bft)
09.05.2012 11:58 21,8 C 50 % 0,0 l/m 6,4 km/h (2 Bft) S 180 10,9 C 20,7 C 6,6 km/h (2 Bft)
09.05.2012 12:00 21,8 C 50 % 0,0 l/m 6,3 km/h (2 Bft) S 180 10,9 C 20,9 C 12,2 km/h (2 Bft)
09.05.2012 12:02 21,8 C 51 % 0,0 l/m 6,3 km/h (2 Bft) S 180 11,2 C 20,9 C 12,2 km/h (2 Bft)
09.05.2012 12:04 21,9 C 51 % 0,0 l/m 5,5 km/h (1 Bft) S 180 11,3 C 20,9 C 8,7 km/h (2 Bft)
09.05.2012 12:06 21,7 C 50 % 0,0 l/m 5,5 km/h (1 Bft) S 180 10,8 C 20,9 C 9,5 km/h (2 Bft)
09.05.2012 12:08 21,6 C 50 % 0,0 l/m 6,0 km/h (2 Bft) SO 135 10,7 C 20,7 C 9,5 km/h (2 Bft)
09.05.2012 12:10 21,5 C 50 % 0,0 l/m 6,3 km/h (2 Bft) S 180 10,6 C 20,6 C 9,2 km/h (2 Bft)
09.05.2012 12:12 21,5 C 49 % 0,0 l/m 5,8 km/h (2 Bft) S 180 10,3 C 20,5 C 7,9 km/h (2 Bft)
09.05.2012 12:14 21,5 C 50 % 0,0 l/m 6,0 km/h (2 Bft) S 180 10,6 C 20,4 C 6,6 km/h (2 Bft)
09.05.2012 12:16 21,5 C 50 % 0,0 l/m 5,3 km/h (1 Bft) SO 135 10,6 C 20,4 C 6,6 km/h (2 Bft)
09.05.2012 12:18 21,5 C 51 % 0,0 l/m 5,1 km/h (1 Bft) S-SO 157 10,9 C 20,4 C 6,1 km/h (2 Bft)
09.05.2012 12:20 21,6 C 51 % 0,0 l/m 5,0 km/h (1 Bft) SO 135 11,0 C 20,5 C 8,7 km/h (2 Bft)
09.05.2012 12:22 21,6 C 50 % 0,0 l/m 5,0 km/h (1 Bft) S-SW 202 10,7 C 20,6 C 8,7 km/h (2 Bft)
09.05.2012 12:24 21,7 C 50 % 0,0 l/m 5,1 km/h (1 Bft) S 180 10,8 C 20,6 C 5,3 km/h (1 Bft)
09.05.2012 12:26 22,0 C 51 % 0,0 l/m 5,1 km/h (1 Bft) O-SO 112 11,4 C 20,7 C 5,1 km/h (1 Bft)
09.05.2012 12:28 22,1 C 50 % 0,0 l/m 5,6 km/h (1 Bft) S 180 11,2 C 20,9 C 8,4 km/h (2 Bft)
09.05.2012 12:30 22,2 C 50 % 0,0 l/m 6,1 km/h (2 Bft) SO 135 11,3 C 21,1 C 9,7 km/h (2 Bft)
09.05.2012 12:32 22,1 C 49 % 0,0 l/m 6,1 km/h (2 Bft) SO 135 10,9 C 21,2 C 9,7 km/h (2 Bft)
09.05.2012 12:34 22,0 C 49 % 0,0 l/m 6,0 km/h (2 Bft) O-SO 112 10,8 C 21,2 C 6,8 km/h (2 Bft)
09.05.2012 12:36 22,0 C 49 % 0,0 l/m 6,4 km/h (2 Bft) S 180 10,8 C 21,2 C 7,7 km/h (2 Bft)
09.05.2012 12:38 21,8 C 50 % 0,0 l/m 5,8 km/h (2 Bft) S-SW 202 10,9 C 21,2 C 7,7 km/h (2 Bft)
09.05.2012 12:40 21,7 C 50 % 0,0 l/m 5,0 km/h (1 Bft) O 90 10,8 C 21,2 C 4,0 km/h (1 Bft)
09.05.2012 12:42 21,7 C 50 % 0,0 l/m 4,3 km/h (1 Bft) SO 135 10,8 C 21,1 C 6,1 km/h (2 Bft)
09.05.2012 12:44 21,4 C 50 % 0,0 l/m 4,7 km/h (1 Bft) O-SO 112 10,5 C 20,9 C 7,9 km/h (2 Bft)
09.05.2012 12:46 21,3 C 51 % 0,0 l/m 4,2 km/h (1 Bft) SO 135 10,7 C 20,7 C 7,9 km/h (2 Bft)
09.05.2012 12:48 21,2 C 51 % 0,0 l/m 4,7 km/h (1 Bft) S-SO 157 10,7 C 20,5 C 9,0 km/h (2 Bft)
09.05.2012 12:50 21,2 C 51 % 0,0 l/m 5,0 km/h (1 Bft) S-SW 202 10,7 C 20,3 C 9,0 km/h (2 Bft)
09.05.2012 12:52 21,2 C 51 % 0,0 l/m 6,1 km/h (2 Bft) S-SO 157 10,7 C 20,2 C 13,7 km/h (3 Bft)
09.05.2012 12:54 21,1 C 51 % 0,0 l/m 6,4 km/h (2 Bft) S 180 10,6 C 20,0 C 13,7 km/h (3 Bft)
09.05.2012 12:56 21,1 C 52 % 0,0 l/m 6,3 km/h (2 Bft) SO 135 10,9 C 19,8 C 15,1 km/h (3 Bft)
09.05.2012 12:58 21,1 C 53 % 0,0 l/m 6,4 km/h (2 Bft) NO 45 11,1 C 19,8 C 5,5 km/h (1 Bft)
09.05.2012 13:00 21,1 C 53 % 0,0 l/m 5,5 km/h (1 Bft) S-SW 202 11,1 C 19,7 C 5,5 km/h (1 Bft)
09.05.2012 13:02 21,2 C 53 % 0,0 l/m 5,6 km/h (1 Bft) SO 135 11,2 C 19,8 C 8,7 km/h (2 Bft)
09.05.2012 13:04 21,1 C 53 % 0,0 l/m 5,0 km/h (1 Bft) S-SO 157 11,1 C 19,7 C 8,7 km/h (2 Bft)
09.05.2012 13:06 21,1 C 53 % 0,0 l/m 4,7 km/h (1 Bft) SO 135 11,1 C 19,6 C 4,0 km/h (1 Bft)
09.05.2012 13:08 21,1 C 53 % 0,0 l/m 5,1 km/h (1 Bft) S 180 11,1 C 19,6 C 4,3 km/h (1 Bft)
09.05.2012 13:10 21,1 C 53 % 0,0 l/m 5,6 km/h (1 Bft) SO 135 11,1 C 19,5 C 5,1 km/h (1 Bft)
09.05.2012 13:12 21,1 C 53 % 0,0 l/m 5,8 km/h (2 Bft) S 180 11,1 C 19,5 C 5,1 km/h (1 Bft)
09.05.2012 13:14 21,0 C 54 % 0,0 l/m 5,5 km/h (1 Bft) SO 135 11,3 C 19,6 C 5,1 km/h (1 Bft)
09.05.2012 13:16 21,0 C 54 % 0,0 l/m 5,5 km/h (1 Bft) SO 135 11,3 C 19,7 C 6,9 km/h (2 Bft)
09.05.2012 13:18 21,1 C 54 % 0,0 l/m 4,7 km/h (1 Bft) S-SO 157 11,4 C 19,7 C 6,9 km/h (2 Bft)
09.05.2012 13:20 21,1 C 54 % 0,0 l/m 4,3 km/h (1 Bft) O-SO 112 11,4 C 19,8 C 5,6 km/h (1 Bft)
09.05.2012 13:22 21,3 C 53 % 0,0 l/m 3,9 km/h (1 Bft) O-SO 112 11,3 C 20,0 C 5,6 km/h (1 Bft)
09.05.2012 13:24 21,5 C 53 % 0,0 l/m 3,5 km/h (1 Bft) O-SO 112 11,5 C 20,2 C 3,2 km/h (1 Bft)
09.05.2012 13:26 21,6 C 52 % 0,0 l/m 3,9 km/h (1 Bft) S-SO 157 11,3 C 20,3 C 6,0 km/h (2 Bft)
09.05.2012 13:28 21,8 C 53 % 0,0 l/m 3,5 km/h (1 Bft) S 180 11,8 C 20,4 C 6,0 km/h (2 Bft)
09.05.2012 13:30 21,7 C 52 % 0,0 l/m 3,5 km/h (1 Bft) S-SO 157 11,4 C 20,6 C 4,3 km/h (1 Bft)
09.05.2012 13:32 21,8 C 52 % 0,0 l/m 3,2 km/h (1 Bft) S-SO 157 11,5 C 20,8 C 3,9 km/h (1 Bft)
09.05.2012 13:34 22,1 C 52 % 0,0 l/m 2,9 km/h (1 Bft) O-SO 112 11,8 C 21,0 C 2,6 km/h (1 Bft)
09.05.2012 13:36 22,2 C 52 % 0,0 l/m 2,1 km/h (1 Bft) O-SO 112 11,9 C 21,4 C 2,7 km/h (1 Bft)
09.05.2012 13:38 22,7 C 49 % 0,0 l/m 1,6 km/h (1 Bft) W-SW 247 11,4 C 21,8 C 5,1 km/h (1 Bft)
09.05.2012 13:40 22,7 C 50 % 0,0 l/m 1,9 km/h (1 Bft) SW 225 11,7 C 22,0 C 5,1 km/h (1 Bft)
09.05.2012 13:42 22,6 C 49 % 0,0 l/m 1,9 km/h (1 Bft) O-SO 112 11,3 C 22,3 C 4,2 km/h (1 Bft)
09.05.2012 13:44 22,7 C 49 % 0,0 l/m 2,3 km/h (1 Bft) W 270 11,4 C 22,7 C 7,9 km/h (2 Bft)
09.05.2012 13:46 22,9 C 49 % 0,0 l/m 2,6 km/h (1 Bft) W-SW 247 11,6 C 22,6 C 7,9 km/h (2 Bft)
09.05.2012 13:48 22,7 C 51 % 0,0 l/m 3,2 km/h (1 Bft) SO 135 12,0 C 22,7 C 5,3 km/h (1 Bft)
09.05.2012 13:50 22,7 C 50 % 0,0 l/m 3,1 km/h (1 Bft) O 90 11,7 C 22,7 C 3,2 km/h (1 Bft)
09.05.2012 13:52 22,8 C 49 % 0,0 l/m 3,1 km/h (1 Bft) N 360 11,5 C 22,7 C 3,2 km/h (1 Bft)
09.05.2012 13:54 23,1 C 49 % 0,0 l/m 2,9 km/h (1 Bft) NO 45 11,8 C 22,8 C 3,4 km/h (1 Bft)
09.05.2012 13:56 23,1 C 49 % 0,0 l/m 2,7 km/h (1 Bft) O 90 11,8 C 23,0 C 5,8 km/h (2 Bft)
09.05.2012 13:58 23,2 C 49 % 0,0 l/m 2,7 km/h (1 Bft) O-SO 112 11,9 C 23,4 C 6,1 km/h (2 Bft)
09.05.2012 14:00 23,2 C 49 % 0,0 l/m 2,7 km/h (1 Bft) O-SO 112 11,9 C 23,6 C 6,1 km/h (2 Bft)
09.05.2012 14:02 23,1 C 49 % 0,0 l/m 2,9 km/h (1 Bft) S 180 11,8 C 23,7 C 4,3 km/h (1 Bft)
09.05.2012 14:04 22,9 C 49 % 0,0 l/m 3,4 km/h (1 Bft) NO 45 11,6 C 23,5 C 4,3 km/h (1 Bft)
09.05.2012 14:06 22,7 C 49 % 0,0 l/m 3,4 km/h (1 Bft) SO 135 11,4 C 23,2 C 3,7 km/h (1 Bft)
09.05.2012 14:08 22,7 C 48 % 0,0 l/m 3,7 km/h (1 Bft) S-SO 157 11,1 C 23,0 C 5,3 km/h (1 Bft)
09.05.2012 14:10 22,6 C 49 % 0,0 l/m 4,0 km/h (1 Bft) O-SO 112 11,3 C 22,7 C 6,8 km/h (2 Bft)
09.05.2012 14:12 22,4 C 48 % 0,0 l/m 4,2 km/h (1 Bft) NO 45 10,8 C 22,3 C 6,8 km/h (2 Bft)
09.05.2012 14:14 22,4 C 47 % 0,0 l/m 4,7 km/h (1 Bft) O-SO 112 10,5 C 22,2 C 10,3 km/h (2 Bft)
09.05.2012 14:16 22,4 C 47 % 0,0 l/m 5,5 km/h (1 Bft) O 90 10,5 C 22,1 C 18,8 km/h (3 Bft)
09.05.2012 14:18 22,2 C 49 % 0,0 l/m 6,4 km/h (2 Bft) S-SO 157 11,0 C 21,9 C 11,6 km/h (2 Bft)
09.05.2012 14:20 22,2 C 49 % 0,0 l/m 7,1 km/h (2 Bft) S 180 11,0 C 21,5 C 11,6 km/h (2 Bft)
09.05.2012 14:22 23,1 C 49 % 0,0 l/m 7,1 km/h (2 Bft) O-SO 112 11,8 C 21,5 C 13,4 km/h (3 Bft)
09.05.2012 14:24 23,1 C 48 % 0,0 l/m 7,4 km/h (2 Bft) SO 135 11,5 C 21,7 C 13,4 km/h (3 Bft)
09.05.2012 14:26 23,3 C 46 % 0,0 l/m 6,4 km/h (2 Bft) O 90 11,0 C 22,4 C 8,5 km/h (2 Bft)
09.05.2012 14:28 23,5 C 47 % 0,0 l/m 6,0 km/h (2 Bft) O-SO 112 11,5 C 22,8 C 11,6 km/h (2 Bft)
09.05.2012 14:30 23,5 C 47 % 0,0 l/m 5,8 km/h (2 Bft) S-SW 202 11,5 C 23,1 C 11,6 km/h (2 Bft)
09.05.2012 14:32 23,5 C 47 % 0,0 l/m 5,8 km/h (2 Bft) SO 135 11,5 C 23,1 C 8,0 km/h (2 Bft)
09.05.2012 14:34 23,3 C 48 % 0,0 l/m 5,8 km/h (2 Bft) SO 135 11,7 C 23,1 C 8,0 km/h (2 Bft)
09.05.2012 14:36 23,2 C 48 % 0,0 l/m 6,0 km/h (2 Bft) SO 135 11,6 C 23,0 C 6,6 km/h (2 Bft)
09.05.2012 14:38 23,0 C 48 % 0,0 l/m 6,3 km/h (2 Bft) S-SO 157 11,4 C 22,7 C 8,4 km/h (2 Bft)
09.05.2012 14:40 22,8 C 48 % 0,0 l/m 6,1 km/h (2 Bft) O-SO 112 11,2 C 22,5 C 8,4 km/h (2 Bft)
09.05.2012 14:42 22,4 C 49 % 0,0 l/m 6,6 km/h (2 Bft) SO 135 11,2 C 21,8 C 13,7 km/h (3 Bft)
09.05.2012 14:44 22,1 C 50 % 0,0 l/m 6,6 km/h (2 Bft) S-SO 157 11,2 C 21,3 C 13,7 km/h (3 Bft)
09.05.2012 14:46 22,1 C 50 % 0,0 l/m 6,4 km/h (2 Bft) O-SO 112 11,2 C 21,2 C 8,7 km/h (2 Bft)
09.05.2012 14:48 22,1 C 50 % 0,0 l/m 6,1 km/h (2 Bft) NO 45 11,2 C 21,0 C 4,0 km/h (1 Bft)
09.05.2012 14:50 22,0 C 51 % 0,0 l/m 5,3 km/h (1 Bft) S 180 11,4 C 21,0 C 3,9 km/h (1 Bft)
09.05.2012 14:52 21,9 C 51 % 0,0 l/m 5,1 km/h (1 Bft) SO 135 11,3 C 21,0 C 6,1 km/h (2 Bft)
09.05.2012 14:54 21,8 C 50 % 0,0 l/m 5,0 km/h (1 Bft) SO 135 10,9 C 20,8 C 14,3 km/h (3 Bft)
09.05.2012 14:56 21,6 C 50 % 0,0 l/m 5,6 km/h (1 Bft) SO 135 10,7 C 20,4 C 14,3 km/h (3 Bft)
09.05.2012 14:58 21,3 C 51 % 0,0 l/m 6,0 km/h (2 Bft) S-SO 157 10,7 C 20,2 C 9,0 km/h (2 Bft)
09.05.2012 15:00 21,1 C 52 % 0,0 l/m 6,3 km/h (2 Bft) S 180 10,9 C 20,0 C 7,1 km/h (2 Bft)
09.05.2012 15:02 20,9 C 52 % 0,0 l/m 6,9 km/h (2 Bft) S 180 10,7 C 19,5 C 11,7 km/h (2 Bft)
09.05.2012 15:04 20,7 C 52 % 0,0 l/m 7,4 km/h (2 Bft) SO 135 10,5 C 19,0 C 16,7 km/h (3 Bft)
09.05.2012 15:06 20,5 C 53 % 0,0 l/m 7,6 km/h (2 Bft) O-SO 112 10,6 C 18,7 C 16,7 km/h (3 Bft)
09.05.2012 15:08 20,3 C 53 % 0,0 l/m 8,0 km/h (2 Bft) SO 135 10,4 C 18,3 C 15,3 km/h (3 Bft)
09.05.2012 15:10 20,3 C 53 % 0,0 l/m 9,0 km/h (2 Bft) S-SO 157 10,4 C 17,6 C 15,3 km/h (3 Bft)
09.05.2012 15:12 20,2 C 54 % 0,0 l/m 8,9 km/h (2 Bft) W 270 10,6 C 17,4 C 10,9 km/h (2 Bft)
09.05.2012 15:14 20,3 C 54 % 0,0 l/m 8,5 km/h (2 Bft) S-SO 157 10,7 C 17,5 C 10,9 km/h (2 Bft)
09.05.2012 15:16 20,5 C 55 % 0,0 l/m 7,4 km/h (2 Bft) O-SO 112 11,1 C 18,0 C 20,9 km/h (4 Bft)
09.05.2012 15:18 20,7 C 56 % 0,0 l/m 6,1 km/h (2 Bft) O-SO 112 11,6 C 18,8 C 7,9 km/h (2 Bft)
09.05.2012 15:20 21,1 C 55 % 0,0 l/m 5,3 km/h (1 Bft) S-SO 157 11,7 C 19,2 C 9,3 km/h (2 Bft)
09.05.2012 15:22 21,2 C 54 % 0,0 l/m 5,1 km/h (1 Bft) O-SO 112 11,5 C 19,8 C 9,3 km/h (2 Bft)
09.05.2012 15:24 21,3 C 53 % 0,0 l/m 5,1 km/h (1 Bft) O 90 11,3 C 20,0 C 11,6 km/h (2 Bft)
09.05.2012 15:26 21,3 C 53 % 0,0 l/m 6,6 km/h (2 Bft) SO 135 11,3 C 20,1 C 11,6 km/h (2 Bft)
09.05.2012 15:28 21,3 C 52 % 0,0 l/m 8,4 km/h (2 Bft) O 90 11,0 C 19,4 C 13,8 km/h (3 Bft)
09.05.2012 15:30 21,0 C 52 % 0,0 l/m 9,2 km/h (2 Bft) SO 135 10,8 C 19,0 C 13,8 km/h (3 Bft)
09.05.2012 15:32 20,8 C 53 % 0,0 l/m 9,5 km/h (2 Bft) SO 135 10,9 C 18,7 C 13,8 km/h (3 Bft)
09.05.2012 15:34 20,8 C 53 % 0,0 l/m 10,8 km/h (2 Bft) S-SO 157 10,9 C 17,9 C 14,3 km/h (3 Bft)
09.05.2012 15:36 20,4 C 53 % 0,0 l/m 11,4 km/h (2 Bft) SO 135 10,5 C 17,4 C 23,0 km/h (4 Bft)
09.05.2012 15:38 20,3 C 54 % 0,0 l/m 12,9 km/h (3 Bft) O-SO 112 10,7 C 16,4 C 18,7 km/h (3 Bft)
09.05.2012 15:40 20,1 C 55 % 0,0 l/m 12,9 km/h (3 Bft) S 180 10,8 C 15,7 C 20,8 km/h (4 Bft)
09.05.2012 15:42 19,7 C 56 % 0,0 l/m 14,2 km/h (3 Bft) S-SW 202 10,7 C 14,2 C 20,8 km/h (4 Bft)
09.05.2012 15:44 19,6 C 58 % 0,0 l/m 15,0 km/h (3 Bft) SO 135 11,1 C 12,9 C 16,9 km/h (3 Bft)
09.05.2012 15:46 19,3 C 59 % 0,0 l/m 15,1 km/h (3 Bft) S 180 11,1 C 12,3 C 29,9 km/h (5 Bft)
09.05.2012 15:48 19,2 C 60 % 0,0 l/m 14,0 km/h (3 Bft) O-SO 112 11,2 C 12,4 C 18,7 km/h (3 Bft)
09.05.2012 15:50 19,2 C 61 % 0,0 l/m 13,7 km/h (3 Bft) O-SO 112 11,5 C 12,1 C 22,7 km/h (4 Bft)
09.05.2012 15:52 19,1 C 61 % 0,0 l/m 13,2 km/h (3 Bft) SO 135 11,4 C 12,2 C 22,7 km/h (4 Bft)
09.05.2012 15:54 19,1 C 62 % 0,0 l/m 11,1 km/h (2 Bft) SO 135 11,6 C 13,1 C 15,4 km/h (3 Bft)
09.05.2012 15:56 19,1 C 63 % 0,0 l/m 10,1 km/h (2 Bft) W-SW 247 11,9 C 13,8 C 17,7 km/h (3 Bft)
09.05.2012 15:58 19,1 C 63 % 0,0 l/m 10,3 km/h (2 Bft) S 180 11,9 C 13,7 C 17,7 km/h (3 Bft)
09.05.2012 16:00 19,1 C 64 % 0,0 l/m 9,7 km/h (2 Bft) SO 135 12,1 C 13,9 C 9,7 km/h (2 Bft)
09.05.2012 16:02 19,1 C 64 % 0,0 l/m 9,0 km/h (2 Bft) SO 135 12,1 C 14,5 C 11,1 km/h (2 Bft)
09.05.2012 16:04 19,1 C 64 % 0,0 l/m 9,3 km/h (2 Bft) S 180 12,1 C 14,2 C 11,1 km/h (2 Bft)
09.05.2012 16:06 19,1 C 64 % 0,0 l/m 9,7 km/h (2 Bft) O-SO 112 12,1 C 14,0 C 11,4 km/h (2 Bft)
09.05.2012 16:08 19,0 C 65 % 0,0 l/m 8,7 km/h (2 Bft) O-SO 112 12,3 C 14,7 C 17,1 km/h (3 Bft)
09.05.2012 16:10 18,9 C 64 % 0,0 l/m 9,7 km/h (2 Bft) O-SO 112 11,9 C 14,2 C 22,2 km/h (4 Bft)
09.05.2012 16:12 18,9 C 64 % 0,0 l/m 9,7 km/h (2 Bft) SO 135 11,9 C 14,1 C 22,2 km/h (4 Bft)
09.05.2012 16:14 18,7 C 65 % 0,0 l/m 9,7 km/h (2 Bft) O 90 12,0 C 14,1 C 13,8 km/h (3 Bft)
09.05.2012 16:16 18,6 C 65 % 0,0 l/m 9,5 km/h (2 Bft) O 90 11,9 C 14,1 C 13,8 km/h (3 Bft)
09.05.2012 16:18 18,6 C 66 % 0,0 l/m 9,5 km/h (2 Bft) O-SO 112 12,1 C 14,1 C 11,7 km/h (2 Bft)
09.05.2012 16:20 18,6 C 66 % 0,0 l/m 8,7 km/h (2 Bft) S-SO 157 12,1 C 14,5 C 11,7 km/h (2 Bft)
09.05.2012 16:22 18,6 C 66 % 0,0 l/m 7,7 km/h (2 Bft) O-SO 112 12,1 C 15,1 C 8,9 km/h (2 Bft)
09.05.2012 16:24 18,5 C 67 % 0,0 l/m 8,0 km/h (2 Bft) O-SO 112 12,3 C 14,8 C 14,2 km/h (3 Bft)
09.05.2012 16:26 18,5 C 67 % 0,0 l/m 8,2 km/h (2 Bft) S-SO 157 12,3 C 14,7 C 14,2 km/h (3 Bft)
09.05.2012 16:28 18,4 C 67 % 0,0 l/m 8,2 km/h (2 Bft) O 90 12,2 C 14,7 C 11,3 km/h (2 Bft)
09.05.2012 16:30 18,4 C 67 % 0,0 l/m 8,2 km/h (2 Bft) SO 135 12,2 C 14,7 C 14,3 km/h (3 Bft)
09.05.2012 16:32 18,4 C 67 % 0,0 l/m 8,7 km/h (2 Bft) SO 135 12,2 C 14,4 C 14,3 km/h (3 Bft)
09.05.2012 16:34 18,3 C 67 % 0,0 l/m 8,4 km/h (2 Bft) O-SO 112 12,1 C 14,5 C 9,8 km/h (2 Bft)
09.05.2012 16:36 18,3 C 68 % 0,0 l/m 8,7 km/h (2 Bft) SO 135 12,3 C 14,2 C 12,7 km/h (3 Bft)
09.05.2012 16:38 18,2 C 68 % 0,0 l/m 8,7 km/h (2 Bft) S-SO 157 12,2 C 14,0 C 12,7 km/h (3 Bft)
09.05.2012 16:40 18,3 C 69 % 0,0 l/m 8,0 km/h (2 Bft) O-SO 112 12,5 C 14,2 C 8,0 km/h (2 Bft)
09.05.2012 16:42 18,3 C 69 % 0,0 l/m 7,7 km/h (2 Bft) SO 135 12,5 C 14,3 C 7,4 km/h (2 Bft)
09.05.2012 16:44 18,3 C 69 % 0,0 l/m 7,7 km/h (2 Bft) O-SO 112 12,5 C 14,3 C 5,8 km/h (2 Bft)
09.05.2012 16:46 18,4 C 69 % 0,0 l/m 7,1 km/h (2 Bft) SO 135 12,6 C 14,7 C 8,0 km/h (2 Bft)
09.05.2012 16:48 18,5 C 70 % 0,0 l/m 6,0 km/h (2 Bft) O-SO 112 12,9 C 15,3 C 8,0 km/h (2 Bft)
09.05.2012 16:50 18,5 C 70 % 0,0 l/m 6,0 km/h (2 Bft) SO 135 12,9 C 15,4 C 9,5 km/h (2 Bft)
09.05.2012 16:52 18,5 C 69 % 0,0 l/m 6,4 km/h (2 Bft) O-SO 112 12,7 C 15,4 C 12,1 km/h (2 Bft)
09.05.2012 16:54 18,4 C 69 % 0,0 l/m 7,1 km/h (2 Bft) O-SO 112 12,6 C 15,0 C 12,1 km/h (2 Bft)
09.05.2012 16:56 18,8 C 69 % 0,0 l/m 7,1 km/h (2 Bft) SO 135 13,0 C 15,1 C 11,4 km/h (2 Bft)
09.05.2012 16:58 18,9 C 69 % 0,0 l/m 7,6 km/h (2 Bft) SO 135 13,1 C 15,3 C 10,5 km/h (2 Bft)
09.05.2012 17:00 18,8 C 69 % 0,0 l/m 7,7 km/h (2 Bft) O-SO 112 13,0 C 15,7 C 10,5 km/h (2 Bft)
09.05.2012 17:02 18,8 C 69 % 0,0 l/m 7,1 km/h (2 Bft) SO 135 13,0 C 16,3 C 10,0 km/h (2 Bft)
09.05.2012 17:04 18,8 C 69 % 0,0 l/m 5,8 km/h (2 Bft) SO 135 13,0 C 16,8 C 6,1 km/h (2 Bft)
09.05.2012 17:06 18,9 C 69 % 0,0 l/m 5,6 km/h (1 Bft) O-SO 112 13,1 C 16,9 C 10,5 km/h (2 Bft)
09.05.2012 17:08 18,9 C 68 % 0,0 l/m 5,5 km/h (1 Bft) SO 135 12,9 C 17,0 C 10,5 km/h (2 Bft)
09.05.2012 17:10 18,8 C 68 % 0,0 l/m 4,8 km/h (1 Bft) SO 135 12,8 C 17,0 C 6,1 km/h (2 Bft)
09.05.2012 17:12 18,9 C 68 % 0,0 l/m 4,8 km/h (1 Bft) O-SO 112 12,9 C 17,2 C 8,7 km/h (2 Bft)
09.05.2012 17:14 18,8 C 67 % 0,0 l/m 4,7 km/h (1 Bft) S 180 12,5 C 17,2 C 8,7 km/h (2 Bft)
09.05.2012 17:16 18,8 C 67 % 0,0 l/m 5,3 km/h (1 Bft) O-SO 112 12,5 C 17,1 C 6,3 km/h (2 Bft)
09.05.2012 17:18 18,9 C 68 % 0,0 l/m 4,5 km/h (1 Bft) S-SO 157 12,9 C 17,2 C 4,8 km/h (1 Bft)
09.05.2012 17:20 18,8 C 67 % 0,0 l/m 4,5 km/h (1 Bft) S-SO 157 12,5 C 17,2 C 3,5 km/h (1 Bft)
09.05.2012 17:22 19,1 C 67 % 0,0 l/m 4,5 km/h (1 Bft) S-SO 157 12,8 C 17,3 C 6,3 km/h (2 Bft)
09.05.2012 17:24 19,1 C 67 % 0,0 l/m 4,5 km/h (1 Bft) SO 135 12,8 C 17,4 C 6,4 km/h (2 Bft)
09.05.2012 17:26 19,1 C 66 % 0,0 l/m 4,5 km/h (1 Bft) S 180 12,6 C 17,5 C 7,4 km/h (2 Bft)
09.05.2012 17:28 19,1 C 66 % 0,0 l/m 4,5 km/h (1 Bft) SO 135 12,6 C 17,6 C 7,4 km/h (2 Bft)
09.05.2012 17:30 19,2 C 66 % 0,0 l/m 5,1 km/h (1 Bft) O 90 12,7 C 17,8 C 5,5 km/h (1 Bft)
09.05.2012 17:32 19,2 C 65 % 0,0 l/m 5,1 km/h (1 Bft) SO 135 12,5 C 17,9 C 6,4 km/h (2 Bft)
09.05.2012 17:34 19,1 C 65 % 0,0 l/m 5,0 km/h (1 Bft) O-SO 112 12,4 C 18,0 C 7,6 km/h (2 Bft)
09.05.2012 17:36 19,1 C 66 % 0,0 l/m 5,1 km/h (1 Bft) S-SO 157 12,6 C 18,1 C 9,2 km/h (2 Bft)
09.05.2012 17:38 19,2 C 65 % 0,0 l/m 4,7 km/h (1 Bft) O-SO 112 12,5 C 18,1 C 9,2 km/h (2 Bft)
09.05.2012 17:40 19,1 C 65 % 0,0 l/m 4,3 km/h (1 Bft) S-SO 157 12,4 C 18,1 C 5,8 km/h (2 Bft)
09.05.2012 17:42 19,1 C 65 % 0,0 l/m 4,0 km/h (1 Bft) O 90 12,4 C 18,2 C 5,8 km/h (2 Bft)
09.05.2012 17:44 19,2 C 65 % 0,0 l/m 4,2 km/h (1 Bft) SO 135 12,5 C 18,1 C 7,1 km/h (2 Bft)
09.05.2012 17:46 19,2 C 64 % 0,0 l/m 4,5 km/h (1 Bft) SO 135 12,2 C 18,1 C 7,1 km/h (2 Bft)
09.05.2012 17:48 19,2 C 64 % 0,0 l/m 4,0 km/h (1 Bft) S 180 12,2 C 18,0 C 4,7 km/h (1 Bft)
09.05.2012 17:50 19,2 C 65 % 0,0 l/m 4,7 km/h (1 Bft) O-SO 112 12,5 C 18,1 C 10,0 km/h (2 Bft)
09.05.2012 17:52 19,2 C 64 % 0,0 l/m 4,7 km/h (1 Bft) SO 135 12,2 C 18,2 C 10,0 km/h (2 Bft)
09.05.2012 17:54 19,4 C 64 % 0,0 l/m 4,8 km/h (1 Bft) S-SO 157 12,4 C 18,3 C 8,5 km/h (2 Bft)
09.05.2012 17:56 19,6 C 64 % 0,0 l/m 3,9 km/h (1 Bft) O-SO 112 12,6 C 18,7 C 5,0 km/h (1 Bft)
09.05.2012 17:58 19,6 C 64 % 0,0 l/m 3,9 km/h (1 Bft) O-SO 112 12,6 C 19,4 C 3,4 km/h (1 Bft)
09.05.2012 18:00 19,7 C 64 % 0,0 l/m 4,2 km/h (1 Bft) S-SO 157 12,7 C 20,2 C 4,3 km/h (1 Bft)
09.05.2012 18:02 19,9 C 64 % 0,0 l/m 4,2 km/h (1 Bft) SO 135 12,9 C 20,9 C 6,9 km/h (2 Bft)
09.05.2012 18:04 19,9 C 63 % 0,0 l/m 3,9 km/h (1 Bft) S 180 12,6 C 21,3 C 6,9 km/h (2 Bft)
09.05.2012 18:06 19,7 C 63 % 0,0 l/m 3,7 km/h (1 Bft) O-SO 112 12,5 C 21,6 C 8,7 km/h (2 Bft)
09.05.2012 18:08 19,6 C 62 % 0,0 l/m 4,2 km/h (1 Bft) SO 135 12,1 C 21,8 C 8,7 km/h (2 Bft)
09.05.2012 18:10 19,5 C 62 % 0,0 l/m 4,2 km/h (1 Bft) SO 135 12,0 C 21,4 C 6,9 km/h (2 Bft)
09.05.2012 18:12 19,5 C 62 % 0,0 l/m 3,9 km/h (1 Bft) SO 135 12,0 C 20,9 C 3,7 km/h (1 Bft)
09.05.2012 18:14 19,3 C 63 % 0,0 l/m 3,4 km/h (1 Bft) O-NO 67 12,1 C 20,4 C 3,9 km/h (1 Bft)
09.05.2012 18:16 19,2 C 62 % 0,0 l/m 3,5 km/h (1 Bft) SO 135 11,7 C 20,0 C 3,9 km/h (1 Bft)
09.05.2012 18:18 19,2 C 63 % 0,0 l/m 2,9 km/h (1 Bft) SO 135 12,0 C 19,6 C 3,5 km/h (1 Bft)
09.05.2012 18:20 19,3 C 64 % 0,0 l/m 2,7 km/h (1 Bft) S 180 12,3 C 19,4 C 3,4 km/h (1 Bft)
09.05.2012 18:22 19,3 C 64 % 0,0 l/m 2,3 km/h (1 Bft) SW 225 12,3 C 19,2 C 3,4 km/h (1 Bft)
09.05.2012 18:24 19,3 C 64 % 0,0 l/m 2,4 km/h (1 Bft) SO 135 12,3 C 19,2 C 2,7 km/h (1 Bft)
09.05.2012 18:26 19,3 C 64 % 0,0 l/m 2,1 km/h (1 Bft) S-SW 202 12,3 C 19,4 C 2,7 km/h (1 Bft)
09.05.2012 18:28 19,5 C 64 % 0,0 l/m 1,4 km/h (1 Bft) S-SW 202 12,5 C 19,7 C 2,3 km/h (1 Bft)
09.05.2012 18:30 19,6 C 63 % 0,0 l/m 1,1 km/h (1 Bft) W 270 12,4 C 20,4 C 3,2 km/h (1 Bft)
09.05.2012 18:32 19,5 C 63 % 0,0 l/m 1,0 km/h (0 Bft) S 180 12,3 C 20,9 C 3,2 km/h (1 Bft)
09.05.2012 18:34 19,4 C 63 % 0,0 l/m 1,3 km/h (1 Bft) S 180 12,2 C 21,2 C 4,0 km/h (1 Bft)
09.05.2012 18:36 19,5 C 63 % 0,0 l/m 1,1 km/h (1 Bft) S 180 12,3 C 21,3 C 4,0 km/h (1 Bft)
09.05.2012 18:38 19,5 C 63 % 0,0 l/m 1,1 km/h (1 Bft) W-SW 247 12,3 C 21,5 C 2,9 km/h (1 Bft)
09.05.2012 18:40 19,4 C 63 % 0,0 l/m 1,9 km/h (1 Bft) W-SW 247 12,2 C 21,7 C 5,1 km/h (1 Bft)
09.05.2012 18:42 19,2 C 62 % 0,0 l/m 2,3 km/h (1 Bft) SW 225 11,7 C 21,8 C 5,1 km/h (1 Bft)
09.05.2012 18:44 19,1 C 62 % 0,0 l/m 2,6 km/h (1 Bft) W-SW 247 11,6 C 21,8 C 4,2 km/h (1 Bft)
09.05.2012 18:46 19,0 C 62 % 0,0 l/m 2,4 km/h (1 Bft) S 180 11,6 C 21,4 C 3,7 km/h (1 Bft)
09.05.2012 18:48 19,0 C 63 % 0,0 l/m 2,4 km/h (1 Bft) S 180 11,8 C 21,0 C 0,0 km/h (0 Bft)
09.05.2012 18:50 18,9 C 63 % 0,0 l/m 1,8 km/h (1 Bft) NO 45 11,7 C 20,7 C 1,8 km/h (1 Bft)
09.05.2012 18:52 18,9 C 63 % 0,0 l/m 1,0 km/h (0 Bft) SO 135 11,7 C 20,2 C 1,8 km/h (1 Bft)
09.05.2012 18:54 18,8 C 64 % 0,0 l/m 0,8 km/h (0 Bft) N-NW 337 11,8 C 20,0 C 3,2 km/h (1 Bft)
09.05.2012 18:56 18,7 C 66 % 0,0 l/m 0,5 km/h (0 Bft) O-SO 112 12,2 C 19,6 C 3,2 km/h (1 Bft)
09.05.2012 18:58 18,7 C 66 % 0,0 l/m 0,6 km/h (0 Bft) W-NW 292 12,2 C 19,4 C 2,7 km/h (1 Bft)
09.05.2012 19:00 18,6 C 67 % 0,0 l/m 0,6 km/h (0 Bft) O-NO 67 12,3 C 19,2 C 0,0 km/h (0 Bft)
09.05.2012 19:02 18,5 C 67 % 0,0 l/m 0,6 km/h (0 Bft) NO 45 12,3 C 19,2 C 0,0 km/h (0 Bft)
09.05.2012 19:04 18,5 C 67 % 0,0 l/m 0,6 km/h (0 Bft) SO 135 12,3 C 19,3 C 0,0 km/h (0 Bft)
09.05.2012 19:06 18,4 C 68 % 0,0 l/m 0,3 km/h (0 Bft) N-NW 337 12,4 C 19,5 C 0,0 km/h (0 Bft)
09.05.2012 19:08 18,5 C 66 % 0,0 l/m 0,5 km/h (0 Bft) SO 135 12,0 C 19,6 C 2,9 km/h (1 Bft)
09.05.2012 19:10 18,4 C 66 % 0,0 l/m 0,6 km/h (0 Bft) S 180 11,9 C 19,4 C 2,9 km/h (1 Bft)
09.05.2012 19:12 18,4 C 66 % 0,0 l/m 0,8 km/h (0 Bft) S 180 11,9 C 19,3 C 1,8 km/h (1 Bft)
09.05.2012 19:14 18,5 C 66 % 0,0 l/m 0,8 km/h (0 Bft) S 180 12,0 C 19,2 C 1,8 km/h (1 Bft)
09.05.2012 19:16 18,5 C 66 % 0,0 l/m 0,8 km/h (0 Bft) O-SO 112 12,0 C 19,0 C 1,9 km/h (1 Bft)
09.05.2012 19:18 18,3 C 66 % 0,0 l/m 0,6 km/h (0 Bft) N 360 11,8 C 18,9 C 1,9 km/h (1 Bft)
09.05.2012 19:20 18,2 C 66 % 0,0 l/m 0,3 km/h (0 Bft) NO 45 11,7 C 18,8 C 0,0 km/h (0 Bft)
09.05.2012 19:22 18,0 C 66 % 0,0 l/m 0,6 km/h (0 Bft) SO 135 11,6 C 18,8 C 4,3 km/h (1 Bft)
09.05.2012 19:24 18,1 C 66 % 0,0 l/m 1,1 km/h (1 Bft) SO 135 11,6 C 18,6 C 4,3 km/h (1 Bft)
09.05.2012 19:26 17,9 C 66 % 0,0 l/m 1,3 km/h (1 Bft) O-NO 67 11,5 C 18,6 C 0,0 km/h (0 Bft)
09.05.2012 19:28 17,8 C 66 % 0,0 l/m 1,1 km/h (1 Bft) O-SO 112 11,4 C 18,4 C 0,0 km/h (0 Bft)
09.05.2012 19:31 17,9 C 67 % 0,0 l/m 1,3 km/h (1 Bft) NO 45 11,7 C 18,4 C 0,0 km/h (0 Bft)
09.05.2012 19:32 17,6 C 68 % 0,0 l/m 1,3 km/h (1 Bft) NO 45 11,6 C 18,2 C 0,0 km/h (0 Bft)
09.05.2012 19:34 17,6 C 68 % 0,0 l/m 0,6 km/h (0 Bft) O-SO 112 11,6 C 18,1 C 2,6 km/h (1 Bft)
09.05.2012 19:36 17,5 C 68 % 0,0 l/m 0,6 km/h (0 Bft) S 180 11,5 C 18,1 C 2,6 km/h (1 Bft)
09.05.2012 19:38 17,5 C 69 % 0,0 l/m 0,6 km/h (0 Bft) NO 45 11,7 C 18,1 C 0,0 km/h (0 Bft)
09.05.2012 19:40 17,4 C 69 % 0,0 l/m 0,5 km/h (0 Bft) NO 45 11,7 C 18,2 C 0,0 km/h (0 Bft)
09.05.2012 19:42 17,3 C 69 % 0,0 l/m 0,5 km/h (0 Bft) NO 45 11,6 C 18,2 C 0,0 km/h (0 Bft)
09.05.2012 19:44 17,2 C 70 % 0,0 l/m 0,5 km/h (0 Bft) NO 45 11,7 C 18,1 C 0,0 km/h (0 Bft)
09.05.2012 19:46 17,2 C 70 % 0,0 l/m 0,2 km/h (0 Bft) NO 45 11,7 C 18,0 C 0,0 km/h (0 Bft)
09.05.2012 19:48 17,1 C 71 % 0,0 l/m 0,0 km/h (0 Bft) NO 45 11,8 C 17,8 C 0,0 km/h (0 Bft)
09.05.2012 19:50 17,1 C 72 % 0,0 l/m 0,0 km/h (0 Bft) N-NO 22 12,0 C 17,6 C 0,0 km/h (0 Bft)
09.05.2012 19:52 16,9 C 72 % 0,0 l/m 0,0 km/h (0 Bft) NO 45 11,8 C 17,3 C 0,0 km/h (0 Bft)
09.05.2012 19:54 16,9 C 71 % 0,0 l/m 0,0 km/h (0 Bft) N 360 11,6 C 17,2 C 0,0 km/h (0 Bft)
09.05.2012 19:56 16,9 C 71 % 0,0 l/m 0,3 km/h (0 Bft) N-NO 22 11,6 C 17,0 C 1,8 km/h (1 Bft)
09.05.2012 19:58 16,9 C 71 % 0,0 l/m 0,5 km/h (0 Bft) NO 45 11,6 C 16,8 C 1,8 km/h (1 Bft)
09.05.2012 20:00 16,8 C 72 % 0,0 l/m 0,5 km/h (0 Bft) N-NO 22 11,7 C 16,7 C 0,0 km/h (0 Bft)
09.05.2012 20:02 16,7 C 72 % 0,0 l/m 0,5 km/h (0 Bft) N 360 11,6 C 16,6 C 0,0 km/h (0 Bft)
09.05.2012 20:04 16,7 C 72 % 0,0 l/m 0,3 km/h (0 Bft) N-NO 22 11,6 C 16,5 C 0,0 km/h (0 Bft)
09.05.2012 20:06 16,6 C 72 % 0,0 l/m 0,3 km/h (0 Bft) NO 45 11,5 C 16,5 C 1,6 km/h (1 Bft)
09.05.2012 20:08 16,5 C 72 % 0,0 l/m 0,3 km/h (0 Bft) NO 45 11,4 C 16,4 C 1,6 km/h (1 Bft)
09.05.2012 20:10 16,4 C 73 % 0,0 l/m 0,3 km/h (0 Bft) N-NO 22 11,5 C 16,2 C 0,0 km/h (0 Bft)
09.05.2012 20:12 16,4 C 73 % 0,0 l/m 0,5 km/h (0 Bft) O 90 11,5 C 16,0 C 1,6 km/h (1 Bft)
09.05.2012 20:14 16,3 C 73 % 0,0 l/m 0,8 km/h (0 Bft) SO 135 11,4 C 15,9 C 1,6 km/h (1 Bft)
09.05.2012 20:16 16,3 C 73 % 0,0 l/m 0,8 km/h (0 Bft) N-NO 22 11,4 C 15,8 C 0,0 km/h (0 Bft)
09.05.2012 20:18 16,2 C 73 % 0,0 l/m 0,6 km/h (0 Bft) NO 45 11,4 C 15,6 C 1,8 km/h (1 Bft)
09.05.2012 20:20 16,3 C 73 % 0,0 l/m 0,6 km/h (0 Bft) N-NO 22 11,4 C 15,5 C 1,8 km/h (1 Bft)
09.05.2012 20:22 16,3 C 73 % 0,0 l/m 0,8 km/h (0 Bft) N 360 11,4 C 15,5 C 1,9 km/h (1 Bft)
09.05.2012 20:24 16,3 C 73 % 0,0 l/m 0,6 km/h (0 Bft) NO 45 11,4 C 15,5 C 1,9 km/h (1 Bft)
09.05.2012 20:26 16,3 C 73 % 0,0 l/m 0,6 km/h (0 Bft) NO 45 11,4 C 15,5 C 1,8 km/h (1 Bft)
09.05.2012 20:28 16,1 C 73 % 0,0 l/m 0,6 km/h (0 Bft) O-NO 67 11,3 C 15,4 C 1,8 km/h (1 Bft)
09.05.2012 20:30 16,1 C 73 % 0,0 l/m 0,5 km/h (0 Bft) N-NO 22 11,3 C 15,3 C 0,0 km/h (0 Bft)
09.05.2012 20:32 16,0 C 73 % 0,0 l/m 0,5 km/h (0 Bft) NO 45 11,2 C 15,2 C 1,9 km/h (1 Bft)
09.05.2012 20:34 16,0 C 73 % 0,0 l/m 0,5 km/h (0 Bft) N 360 11,2 C 15,1 C 2,7 km/h (1 Bft)
09.05.2012 20:36 15,9 C 73 % 0,0 l/m 0,5 km/h (0 Bft) N-NO 22 11,1 C 15,0 C 2,7 km/h (1 Bft)
09.05.2012 20:38 15,8 C 73 % 0,0 l/m 0,5 km/h (0 Bft) N 360 11,0 C 14,9 C 2,7 km/h (1 Bft)
09.05.2012 20:40 15,9 C 73 % 0,0 l/m 0,6 km/h (0 Bft) NO 45 11,1 C 14,8 C 2,7 km/h (1 Bft)
09.05.2012 20:42 15,8 C 73 % 0,0 l/m 1,0 km/h (0 Bft) N 360 11,0 C 14,6 C 1,8 km/h (1 Bft)
09.05.2012 20:44 15,6 C 73 % 0,0 l/m 1,0 km/h (0 Bft) N-NO 22 10,8 C 14,6 C 1,8 km/h (1 Bft)
09.05.2012 20:46 15,6 C 73 % 0,0 l/m 1,0 km/h (0 Bft) N 360 10,8 C 14,4 C 2,9 km/h (1 Bft)
09.05.2012 20:48 15,5 C 73 % 0,0 l/m 1,0 km/h (0 Bft) NO 45 10,7 C 14,3 C 2,9 km/h (1 Bft)
09.05.2012 20:50 15,4 C 73 % 0,0 l/m 0,8 km/h (0 Bft) N 360 10,6 C 14,1 C 1,6 km/h (1 Bft)
09.05.2012 20:52 15,4 C 74 % 0,0 l/m 0,6 km/h (0 Bft) NO 45 10,8 C 14,1 C 1,6 km/h (1 Bft)
09.05.2012 20:54 15,3 C 74 % 0,0 l/m 0,5 km/h (0 Bft) N-NO 22 10,7 C 14,0 C 0,0 km/h (0 Bft)
09.05.2012 20:56 15,2 C 74 % 0,0 l/m 0,3 km/h (0 Bft) N-NO 22 10,6 C 13,9 C 0,0 km/h (0 Bft)
09.05.2012 20:58 15,2 C 74 % 0,0 l/m 0,6 km/h (0 Bft) N-NO 22 10,6 C 13,7 C 2,7 km/h (1 Bft)
09.05.2012 21:00 15,1 C 74 % 0,0 l/m 0,8 km/h (0 Bft) NO 45 10,5 C 13,6 C 2,7 km/h (1 Bft)
09.05.2012 21:02 15,1 C 74 % 0,0 l/m 0,6 km/h (0 Bft) N-NO 22 10,5 C 13,4 C 1,8 km/h (1 Bft)
09.05.2012 21:04 14,9 C 74 % 0,0 l/m 0,8 km/h (0 Bft) N-NO 22 10,3 C 13,3 C 1,8 km/h (1 Bft)
09.05.2012 21:06 14,8 C 75 % 0,0 l/m 0,8 km/h (0 Bft) N-NO 22 10,4 C 13,2 C 1,8 km/h (1 Bft)
09.05.2012 21:08 14,8 C 75 % 0,0 l/m 0,8 km/h (0 Bft) NO 45 10,4 C 13,1 C 0,0 km/h (0 Bft)
09.05.2012 21:10 14,7 C 75 % 0,0 l/m 0,5 km/h (0 Bft) N-NO 22 10,3 C 13,0 C 2,1 km/h (1 Bft)
09.05.2012 21:12 14,7 C 75 % 0,0 l/m 0,6 km/h (0 Bft) NO 45 10,3 C 12,9 C 2,6 km/h (1 Bft)
09.05.2012 21:14 14,7 C 76 % 0,0 l/m 0,6 km/h (0 Bft) NO 45 10,5 C 12,9 C 2,9 km/h (1 Bft)
09.05.2012 21:16 14,6 C 76 % 0,0 l/m 0,8 km/h (0 Bft) NO 45 10,4 C 12,9 C 2,9 km/h (1 Bft)
09.05.2012 21:18 14,5 C 76 % 0,0 l/m 1,0 km/h (0 Bft) NO 45 10,3 C 12,9 C 1,9 km/h (1 Bft)
09.05.2012 21:20 14,4 C 76 % 0,0 l/m 1,0 km/h (0 Bft) NO 45 10,2 C 12,9 C 1,9 km/h (1 Bft)
09.05.2012 21:22 14,4 C 77 % 0,0 l/m 1,0 km/h (0 Bft) NO 45 10,4 C 12,9 C 2,6 km/h (1 Bft)
09.05.2012 21:24 14,5 C 77 % 0,0 l/m 1,0 km/h (0 Bft) NO 45 10,5 C 12,9 C 2,6 km/h (1 Bft)
09.05.2012 21:26 14,4 C 77 % 0,0 l/m 0,8 km/h (0 Bft) N-NO 22 10,4 C 12,8 C 2,1 km/h (1 Bft)
09.05.2012 21:28 14,4 C 77 % 0,0 l/m 0,6 km/h (0 Bft) N 360 10,4 C 12,8 C 1,8 km/h (1 Bft)
09.05.2012 21:30 14,3 C 77 % 0,0 l/m 0,6 km/h (0 Bft) N 360 10,3 C 12,7 C 0,0 km/h (0 Bft)
09.05.2012 21:32 14,2 C 77 % 0,0 l/m 0,5 km/h (0 Bft) N-NO 22 10,2 C 12,7 C 0,0 km/h (0 Bft)
09.05.2012 21:34 14,3 C 77 % 0,0 l/m 0,5 km/h (0 Bft) N 360 10,3 C 12,7 C 2,9 km/h (1 Bft)
09.05.2012 21:36 14,3 C 78 % 0,0 l/m 1,0 km/h (0 Bft) N 360 10,5 C 12,6 C 3,4 km/h (1 Bft)
09.05.2012 21:38 14,2 C 78 % 0,0 l/m 1,1 km/h (1 Bft) N-NO 22 10,4 C 12,6 C 3,4 km/h (1 Bft)
09.05.2012 21:40 14,0 C 78 % 0,0 l/m 1,1 km/h (1 Bft) N-NO 22 10,2 C 12,5 C 1,6 km/h (1 Bft)
09.05.2012 21:42 14,0 C 78 % 0,0 l/m 1,1 km/h (1 Bft) N-NO 22 10,2 C 12,5 C 0,0 km/h (0 Bft)
09.05.2012 21:44 14,0 C 78 % 0,0 l/m 1,1 km/h (1 Bft) NO 45 10,2 C 12,4 C 1,8 km/h (1 Bft)
09.05.2012 21:46 13,9 C 78 % 0,0 l/m 1,0 km/h (0 Bft) NO 45 10,1 C 12,4 C 1,8 km/h (1 Bft)
09.05.2012 21:48 13,9 C 78 % 0,0 l/m 0,3 km/h (0 Bft) NO 45 10,1 C 12,4 C 1,8 km/h (1 Bft)
09.05.2012 21:50 13,9 C 79 % 0,0 l/m 0,3 km/h (0 Bft) N-NO 22 10,3 C 12,4 C 1,8 km/h (1 Bft)
09.05.2012 21:52 13,9 C 79 % 0,0 l/m 0,2 km/h (0 Bft) N-NO 22 10,3 C 12,3 C 0,0 km/h (0 Bft)
09.05.2012 21:54 13,9 C 79 % 0,0 l/m 0,2 km/h (0 Bft) N 360 10,3 C 12,3 C 1,6 km/h (1 Bft)
09.05.2012 21:56 13,8 C 79 % 0,0 l/m 0,2 km/h (0 Bft) N 360 10,2 C 12,2 C 1,6 km/h (1 Bft)
09.05.2012 21:58 13,9 C 79 % 0,0 l/m 0,0 km/h (0 Bft) N 360 10,3 C 12,2 C 0,0 km/h (0 Bft)
09.05.2012 22:00 13,8 C 79 % 0,0 l/m 0,0 km/h (0 Bft) N 360 10,2 C 12,2 C 0,0 km/h (0 Bft)
09.05.2012 22:02 13,8 C 79 % 0,0 l/m 0,0 km/h (0 Bft) O-SO 112 10,2 C 12,2 C 0,0 km/h (0 Bft)
09.05.2012 22:04 13,8 C 79 % 0,0 l/m 0,0 km/h (0 Bft) S-SO 157 10,2 C 12,2 C 0,0 km/h (0 Bft)
09.05.2012 22:06 13,8 C 79 % 0,0 l/m 0,0 km/h (0 Bft) SO 135 10,2 C 12,3 C 0,0 km/h (0 Bft)
09.05.2012 22:08 13,9 C 79 % 0,0 l/m 0,0 km/h (0 Bft) SO 135 10,3 C 12,3 C 0,0 km/h (0 Bft)
09.05.2012 22:10 13,8 C 79 % 0,0 l/m 0,0 km/h (0 Bft) N-NO 22 10,2 C 12,3 C 0,0 km/h (0 Bft)
09.05.2012 22:12 13,8 C 79 % 0,0 l/m 0,0 km/h (0 Bft) NO 45 10,2 C 12,4 C 0,0 km/h (0 Bft)
09.05.2012 22:14 13,9 C 79 % 0,0 l/m 0,0 km/h (0 Bft) O-NO 67 10,3 C 12,4 C 0,0 km/h (0 Bft)
09.05.2012 22:16 13,9 C 79 % 0,0 l/m 0,0 km/h (0 Bft) O-NO 67 10,3 C 12,4 C 0,0 km/h (0 Bft)
09.05.2012 22:18 13,9 C 79 % 0,0 l/m 0,0 km/h (0 Bft) O-NO 67 10,3 C 12,4 C 0,0 km/h (0 Bft)
09.05.2012 22:20 13,8 C 79 % 0,0 l/m 0,0 km/h (0 Bft) O-NO 67 10,2 C 12,4 C 0,0 km/h (0 Bft)
09.05.2012 22:22 13,9 C 79 % 0,0 l/m 0,0 km/h (0 Bft) O-NO 67 10,3 C 12,4 C 0,0 km/h (0 Bft)
09.05.2012 22:24 13,8 C 79 % 0,0 l/m 0,0 km/h (0 Bft) O-NO 67 10,2 C 12,4 C 0,0 km/h (0 Bft)
09.05.2012 22:26 13,9 C 79 % 0,0 l/m 0,0 km/h (0 Bft) O-NO 67 10,3 C 12,4 C 0,0 km/h (0 Bft)
09.05.2012 22:28 13,8 C 79 % 0,0 l/m 0,0 km/h (0 Bft) O-NO 67 10,2 C 12,4 C 0,0 km/h (0 Bft)
09.05.2012 22:30 13,9 C 79 % 0,0 l/m 0,0 km/h (0 Bft) O-NO 67 10,3 C 12,4 C 0,0 km/h (0 Bft)
09.05.2012 22:32 13,9 C 79 % 0,0 l/m 0,0 km/h (0 Bft) O-NO 67 10,3 C 12,4 C 0,0 km/h (0 Bft)
09.05.2012 22:34 13,9 C 79 % 0,0 l/m 0,0 km/h (0 Bft) O-NO 67 10,3 C 12,4 C 0,0 km/h (0 Bft)
09.05.2012 22:36 13,9 C 79 % 0,0 l/m 0,0 km/h (0 Bft) NO 45 10,3 C 12,4 C 0,0 km/h (0 Bft)
09.05.2012 22:38 13,9 C 79 % 0,0 l/m 0,0 km/h (0 Bft) N-NO 22 10,3 C 12,4 C 0,0 km/h (0 Bft)
09.05.2012 22:40 13,9 C 79 % 0,0 l/m 0,0 km/h (0 Bft) N-NO 22 10,3 C 12,4 C 0,0 km/h (0 Bft)
09.05.2012 22:42 13,7 C 79 % 0,0 l/m 0,0 km/h (0 Bft) N-NO 22 10,1 C 12,4 C 0,0 km/h (0 Bft)
09.05.2012 22:44 13,8 C 79 % 0,0 l/m 0,0 km/h (0 Bft) N-NO 22 10,2 C 12,4 C 0,0 km/h (0 Bft)
09.05.2012 22:46 13,7 C 79 % 0,0 l/m 0,0 km/h (0 Bft) N 360 10,1 C 12,4 C 2,1 km/h (1 Bft)
09.05.2012 22:48 13,7 C 79 % 0,0 l/m 0,2 km/h (0 Bft) O 90 10,1 C 12,4 C 2,1 km/h (1 Bft)
09.05.2012 22:50 13,7 C 79 % 0,0 l/m 0,2 km/h (0 Bft) O 90 10,1 C 12,4 C 0,0 km/h (0 Bft)
09.05.2012 22:52 13,7 C 79 % 0,0 l/m 0,3 km/h (0 Bft) O-NO 67 10,1 C 12,5 C 0,0 km/h (0 Bft)
09.05.2012 22:54 13,7 C 79 % 0,0 l/m 0,3 km/h (0 Bft) NO 45 10,1 C 12,6 C 0,0 km/h (0 Bft)
09.05.2012 22:56 13,7 C 79 % 0,0 l/m 0,3 km/h (0 Bft) O-NO 67 10,1 C 12,6 C 0,0 km/h (0 Bft)
09.05.2012 22:58 13,7 C 80 % 0,0 l/m 0,3 km/h (0 Bft) O-NO 67 10,3 C 12,6 C 0,0 km/h (0 Bft)
09.05.2012 23:00 13,7 C 79 % 0,0 l/m 0,3 km/h (0 Bft) O-SO 112 10,1 C 12,7 C 1,9 km/h (1 Bft)
09.05.2012 23:02 13,7 C 80 % 0,0 l/m 0,3 km/h (0 Bft) O-SO 112 10,3 C 12,7 C 1,9 km/h (1 Bft)
09.05.2012 23:04 13,7 C 80 % 0,0 l/m 0,3 km/h (0 Bft) O-SO 112 10,3 C 12,7 C 2,3 km/h (1 Bft)
09.05.2012 23:06 13,8 C 80 % 0,0 l/m 0,6 km/h (0 Bft) O-SO 112 10,4 C 12,8 C 2,7 km/h (1 Bft)
09.05.2012 23:08 13,9 C 80 % 0,0 l/m 0,6 km/h (0 Bft) O-SO 112 10,5 C 12,9 C 2,7 km/h (1 Bft)
09.05.2012 23:10 13,9 C 80 % 0,0 l/m 0,6 km/h (0 Bft) S 180 10,5 C 12,9 C 0,0 km/h (0 Bft)
09.05.2012 23:12 13,9 C 80 % 0,0 l/m 0,5 km/h (0 Bft) O 90 10,5 C 12,9 C 0,0 km/h (0 Bft)
09.05.2012 23:14 13,9 C 80 % 0,0 l/m 0,6 km/h (0 Bft) SO 135 10,5 C 12,9 C 1,8 km/h (1 Bft)
09.05.2012 23:16 13,9 C 80 % 0,0 l/m 0,8 km/h (0 Bft) NO 45 10,5 C 12,9 C 2,3 km/h (1 Bft)
09.05.2012 23:18 13,9 C 80 % 0,0 l/m 0,6 km/h (0 Bft) O 90 10,5 C 12,9 C 2,3 km/h (1 Bft)
09.05.2012 23:20 13,7 C 80 % 0,0 l/m 0,6 km/h (0 Bft) O 90 10,3 C 12,9 C 0,0 km/h (0 Bft)
09.05.2012 23:22 13,7 C 80 % 0,0 l/m 0,6 km/h (0 Bft) S-SO 157 10,3 C 12,9 C 0,0 km/h (0 Bft)
09.05.2012 23:24 13,8 C 80 % 0,0 l/m 0,6 km/h (0 Bft) S-SO 157 10,4 C 12,9 C 0,0 km/h (0 Bft)
09.05.2012 23:26 13,7 C 80 % 0,0 l/m 0,2 km/h (0 Bft) S 180 10,3 C 12,9 C 0,0 km/h (0 Bft)
09.05.2012 23:28 13,7 C 80 % 0,0 l/m 0,0 km/h (0 Bft) S 180 10,3 C 12,8 C 0,0 km/h (0 Bft)
09.05.2012 23:30 13,7 C 80 % 0,0 l/m 0,0 km/h (0 Bft) N 360 10,3 C 12,8 C 0,0 km/h (0 Bft)
09.05.2012 23:32 13,7 C 80 % 0,0 l/m 0,0 km/h (0 Bft) N 360 10,3 C 12,7 C 0,0 km/h (0 Bft)
09.05.2012 23:34 13,7 C 80 % 0,0 l/m 0,0 km/h (0 Bft) N-NW 337 10,3 C 12,7 C 0,0 km/h (0 Bft)
09.05.2012 23:36 13,6 C 80 % 0,0 l/m 0,0 km/h (0 Bft) W 270 10,2 C 12,6 C 0,0 km/h (0 Bft)
09.05.2012 23:38 13,6 C 80 % 0,0 l/m 0,0 km/h (0 Bft) W-NW 292 10,2 C 12,5 C 0,0 km/h (0 Bft)
09.05.2012 23:40 13,7 C 80 % 0,0 l/m 0,0 km/h (0 Bft) NO 45 10,3 C 12,5 C 0,0 km/h (0 Bft)
09.05.2012 23:42 13,6 C 80 % 0,0 l/m 0,0 km/h (0 Bft) NO 45 10,2 C 12,4 C 0,0 km/h (0 Bft)
09.05.2012 23:44 13,6 C 80 % 0,0 l/m 0,2 km/h (0 Bft) SO 135 10,2 C 12,4 C 2,4 km/h (1 Bft)
09.05.2012 23:46 13,6 C 80 % 0,0 l/m 0,2 km/h (0 Bft) SO 135 10,2 C 12,4 C 2,4 km/h (1 Bft)
09.05.2012 23:48 13,7 C 80 % 0,0 l/m 0,2 km/h (0 Bft) W-NW 292 10,3 C 12,4 C 0,0 km/h (0 Bft)
09.05.2012 23:50 13,7 C 80 % 0,0 l/m 0,2 km/h (0 Bft) S-SW 202 10,3 C 12,4 C 0,0 km/h (0 Bft)
09.05.2012 23:52 13,7 C 80 % 0,0 l/m 0,2 km/h (0 Bft) SW 225 10,3 C 12,4 C 0,0 km/h (0 Bft)
09.05.2012 23:54 13,6 C 80 % 0,0 l/m 0,2 km/h (0 Bft) SO 135 10,2 C 12,4 C 0,0 km/h (0 Bft)
09.05.2012 23:56 13,6 C 80 % 0,0 l/m 0,0 km/h (0 Bft) NO 45 10,2 C 12,3 C 0,0 km/h (0 Bft)
09.05.2012 23:58 13,5 C 80 % 0,0 l/m 0,0 km/h (0 Bft) O-NO 67 10,1 C 12,3 C 0,0 km/h (0 Bft)
_ Min-Zeit 02:18 11:06 - 00:00 - - 02:18 00:32 00:00
Minimum _ 9,9 C 43 % - 0,0 km/h (0 Bft) - - 6,4 C 8,5 C 0,0 km/h (0 Bft)
_ Max-Zeit 14:28 06:34 00:00 15:46 - - 16:58 10:46 15:46
Maximum _ 23,5 C 82 % 0,0 l/m 15,1 km/h
S (3 Bft)
- - 13,1 C 24,5 C 29,9 km/h
S (5 Bft)
Durchschnitt _ 15,9 C 69 % #0,0 l/m 2,5 km/h (1 Bft) SO - 9,8 C 15,1 C 4,0 km/h (1 Bft)